Wetterdaten: Samstag, 23.03.2019
Datum Zeit Temp. Aussen Temp. o. S. +5cm Feuchte Auss Luftdruck Regen Sonnenschein Regendauer Solar Windben Empfang
23.03.2019 00:00 8,7 C 8,3 C 7,2 C 81 % 1024,5 hPa 0,0 l/m 0 min 0 min 0 W/m 6,4 km/h (2 Bft) 100,00 %
23.03.2019 00:02 8,7 C 8,3 C 7,2 C 82 % 1024,5 hPa 0,0 l/m 0 min 0 min 0 W/m 6,4 km/h (2 Bft) 100,00 %
23.03.2019 00:04 8,7 C 8,3 C 7,2 C 82 % 1024,6 hPa 0,0 l/m 0 min 0 min 0 W/m 3,2 km/h (1 Bft) 100,00 %
23.03.2019 00:08 8,7 C 8,3 C 7,2 C 82 % 1024,6 hPa 0,0 l/m 0 min 0 min 0 W/m 6,4 km/h (2 Bft) 97,87 %
23.03.2019 00:10 8,7 C 7,8 C 7,2 C 82 % 1024,6 hPa 0,0 l/m 0 min 0 min 0 W/m 6,4 km/h (2 Bft) 100,00 %
23.03.2019 00:12 8,7 C 8,3 C 7,2 C 82 % 1024,6 hPa 0,0 l/m 0 min 0 min 0 W/m 0,0 km/h (0 Bft) 100,00 %
23.03.2019 00:14 8,7 C 7,8 C 6,7 C 82 % 1024,6 hPa 0,0 l/m 0 min 0 min 0 W/m 0,0 km/h (0 Bft) 100,00 %
23.03.2019 00:16 8,8 C 8,3 C 7,2 C 82 % 1024,6 hPa 0,0 l/m 0 min 0 min 0 W/m 0,0 km/h (0 Bft) 100,00 %
23.03.2019 00:18 8,8 C 7,8 C 6,7 C 82 % 1024,6 hPa 0,0 l/m 0 min 0 min 0 W/m 0,0 km/h (0 Bft) 95,74 %
23.03.2019 00:20 8,8 C 7,8 C 6,7 C 82 % 1024,6 hPa 0,0 l/m 0 min 0 min 0 W/m 0,0 km/h (0 Bft) 100,00 %
23.03.2019 00:22 8,8 C 7,8 C 6,7 C 82 % 1024,6 hPa 0,0 l/m 0 min 0 min 0 W/m 0,0 km/h (0 Bft) 100,00 %
23.03.2019 00:24 8,8 C 7,8 C 6,7 C 82 % 1024,6 hPa 0,0 l/m 0 min 0 min 0 W/m 0,0 km/h (0 Bft) 97,87 %
23.03.2019 00:26 8,7 C 7,8 C 6,7 C 82 % 1024,6 hPa 0,0 l/m 0 min 0 min 0 W/m 0,0 km/h (0 Bft) 97,83 %
23.03.2019 00:28 8,8 C 7,8 C 6,7 C 82 % 1024,6 hPa 0,0 l/m 0 min 0 min 0 W/m 0,0 km/h (0 Bft) 97,87 %
23.03.2019 00:30 8,7 C 7,8 C 6,7 C 82 % 1024,6 hPa 0,0 l/m 0 min 0 min 0 W/m 0,0 km/h (0 Bft) 100,00 %
23.03.2019 00:32 8,7 C 7,8 C 6,7 C 82 % 1024,6 hPa 0,0 l/m 0 min 0 min 0 W/m 0,0 km/h (0 Bft) 100,00 %
23.03.2019 00:34 8,7 C 7,8 C 6,1 C 82 % 1024,6 hPa 0,0 l/m 0 min 0 min 0 W/m 0,0 km/h (0 Bft) 100,00 %
23.03.2019 00:36 8,7 C 7,2 C 6,1 C 82 % 1024,5 hPa 0,0 l/m 0 min 0 min 0 W/m 0,0 km/h (0 Bft) 95,74 %
23.03.2019 00:38 8,7 C 7,2 C 6,1 C 82 % 1024,6 hPa 0,0 l/m 0 min 0 min 0 W/m 0,0 km/h (0 Bft) 97,83 %
23.03.2019 00:40 8,7 C 7,2 C 6,1 C 82 % 1024,6 hPa 0,0 l/m 0 min 0 min 0 W/m 0,0 km/h (0 Bft) 95,74 %
23.03.2019 00:42 8,7 C 7,2 C 5,6 C 82 % 1024,5 hPa 0,0 l/m 0 min 0 min 0 W/m 0,0 km/h (0 Bft) 97,87 %
23.03.2019 00:44 8,7 C 7,2 C 5,6 C 82 % 1024,5 hPa 0,0 l/m 0 min 0 min 0 W/m 0,0 km/h (0 Bft) 97,87 %
23.03.2019 00:46 8,7 C 7,2 C 5,6 C 82 % 1024,5 hPa 0,0 l/m 0 min 0 min 0 W/m 0,0 km/h (0 Bft) 97,87 %
23.03.2019 00:48 8,6 C 7,2 C 5,6 C 82 % 1024,5 hPa 0,0 l/m 0 min 0 min 0 W/m 0,0 km/h (0 Bft) 97,87 %
23.03.2019 00:50 8,6 C 7,2 C 5,6 C 82 % 1024,5 hPa 0,0 l/m 0 min 0 min 0 W/m 0,0 km/h (0 Bft) 97,83 %
23.03.2019 00:52 8,6 C 7,2 C 5,6 C 82 % 1024,5 hPa 0,0 l/m 0 min 0 min 0 W/m 0,0 km/h (0 Bft) 97,87 %
23.03.2019 00:54 8,6 C 7,2 C 5,6 C 82 % 1024,5 hPa 0,0 l/m 0 min 0 min 0 W/m 0,0 km/h (0 Bft) 95,74 %
23.03.2019 00:56 8,6 C 7,2 C 5,6 C 82 % 1024,6 hPa 0,0 l/m 0 min 0 min 0 W/m 0,0 km/h (0 Bft) 97,87 %
23.03.2019 00:58 8,5 C 6,7 C 5,0 C 82 % 1024,6 hPa 0,0 l/m 0 min 0 min 0 W/m 0,0 km/h (0 Bft) 95,74 %
23.03.2019 01:00 8,5 C 6,7 C 5,0 C 82 % 1024,5 hPa 0,0 l/m 0 min 0 min 0 W/m 0,0 km/h (0 Bft) 95,74 %
23.03.2019 01:02 8,4 C 6,7 C 5,0 C 82 % 1024,6 hPa 0,0 l/m 0 min 0 min 0 W/m 0,0 km/h (0 Bft) 93,48 %
23.03.2019 01:04 8,4 C 6,7 C 5,0 C 82 % 1024,6 hPa 0,0 l/m 0 min 0 min 0 W/m 0,0 km/h (0 Bft) 95,74 %
23.03.2019 01:06 8,4 C 6,7 C 5,0 C 82 % 1024,7 hPa 0,0 l/m 0 min 0 min 0 W/m 0,0 km/h (0 Bft) 97,87 %
23.03.2019 01:08 8,3 C 6,7 C 5,0 C 82 % 1024,7 hPa 0,0 l/m 0 min 0 min 0 W/m 0,0 km/h (0 Bft) 97,87 %
23.03.2019 01:10 8,3 C 6,7 C 5,0 C 82 % 1024,8 hPa 0,0 l/m 0 min 0 min 0 W/m 0,0 km/h (0 Bft) 97,87 %
23.03.2019 01:12 8,3 C 6,7 C 5,0 C 82 % 1024,8 hPa 0,0 l/m 0 min 0 min 0 W/m 0,0 km/h (0 Bft) 95,74 %
23.03.2019 01:14 8,2 C 6,7 C 5,0 C 82 % 1024,8 hPa 0,0 l/m 0 min 0 min 0 W/m 0,0 km/h (0 Bft) 95,65 %
23.03.2019 01:16 8,2 C 6,7 C 5,0 C 82 % 1024,8 hPa 0,0 l/m 0 min 0 min 0 W/m 0,0 km/h (0 Bft) 93,62 %
23.03.2019 01:18 8,2 C 6,7 C 5,0 C 82 % 1024,8 hPa 0,0 l/m 0 min 0 min 0 W/m 0,0 km/h (0 Bft) 93,62 %
23.03.2019 01:20 8,2 C 6,7 C 5,0 C 82 % 1024,9 hPa 0,0 l/m 0 min 0 min 0 W/m 0,0 km/h (0 Bft) 95,74 %
23.03.2019 01:22 8,1 C 6,1 C 5,0 C 82 % 1024,9 hPa 0,0 l/m 0 min 0 min 0 W/m 0,0 km/h (0 Bft) 95,74 %
23.03.2019 01:24 8,1 C 6,1 C 5,0 C 82 % 1025,0 hPa 0,0 l/m 0 min 0 min 0 W/m 0,0 km/h (0 Bft) 95,65 %
23.03.2019 01:26 8,1 C 6,7 C 5,0 C 82 % 1025,0 hPa 0,0 l/m 0 min 0 min 0 W/m 0,0 km/h (0 Bft) 93,62 %
23.03.2019 01:28 8,0 C 6,1 C 5,0 C 82 % 1025,0 hPa 0,0 l/m 0 min 0 min 0 W/m 0,0 km/h (0 Bft) 93,62 %
23.03.2019 01:30 8,0 C 6,1 C 5,0 C 82 % 1025,0 hPa 0,0 l/m 0 min 0 min 0 W/m 0,0 km/h (0 Bft) 95,74 %
23.03.2019 01:32 7,9 C 6,1 C 5,0 C 82 % 1025,0 hPa 0,0 l/m 0 min 0 min 0 W/m 0,0 km/h (0 Bft) 95,74 %
23.03.2019 01:34 7,9 C 6,7 C 5,0 C 82 % 1025,0 hPa 0,0 l/m 0 min 0 min 0 W/m 0,0 km/h (0 Bft) 97,87 %
23.03.2019 01:36 7,9 C 6,1 C 4,4 C 82 % 1025,0 hPa 0,0 l/m 0 min 0 min 0 W/m 0,0 km/h (0 Bft) 97,83 %
23.03.2019 01:38 7,8 C 6,1 C 4,4 C 82 % 1025,0 hPa 0,0 l/m 0 min 0 min 0 W/m 0,0 km/h (0 Bft) 97,87 %
23.03.2019 01:40 7,8 C 6,1 C 5,0 C 83 % 1025,0 hPa 0,0 l/m 0 min 0 min 0 W/m 0,0 km/h (0 Bft) 97,87 %
23.03.2019 01:42 7,8 C 6,7 C 5,0 C 83 % 1025,0 hPa 0,0 l/m 0 min 0 min 0 W/m 0,0 km/h (0 Bft) 97,87 %
23.03.2019 01:44 7,8 C 6,7 C 5,0 C 83 % 1025,1 hPa 0,0 l/m 0 min 0 min 0 W/m 0,0 km/h (0 Bft) 100,00 %
23.03.2019 01:46 7,7 C 6,7 C 5,0 C 84 % 1025,1 hPa 0,0 l/m 0 min 0 min 0 W/m 0,0 km/h (0 Bft) 100,00 %
23.03.2019 01:48 7,7 C 6,7 C 5,6 C 84 % 1025,2 hPa 0,0 l/m 0 min 0 min 0 W/m 0,0 km/h (0 Bft) 100,00 %
23.03.2019 01:50 7,7 C 6,7 C 5,6 C 84 % 1025,2 hPa 0,0 l/m 0 min 0 min 0 W/m 0,0 km/h (0 Bft) 100,00 %
23.03.2019 01:52 7,7 C 6,7 C 5,6 C 84 % 1025,2 hPa 0,0 l/m 0 min 0 min 0 W/m 0,0 km/h (0 Bft) 100,00 %
23.03.2019 01:54 7,7 C 6,7 C 5,6 C 85 % 1025,2 hPa 0,0 l/m 0 min 0 min 0 W/m 0,0 km/h (0 Bft) 100,00 %
23.03.2019 01:56 7,6 C 6,7 C 6,1 C 85 % 1025,2 hPa 0,0 l/m 0 min 0 min 0 W/m 6,4 km/h (2 Bft) 100,00 %
23.03.2019 01:58 7,6 C 6,7 C 6,1 C 85 % 1025,2 hPa 0,0 l/m 0 min 0 min 0 W/m 12,9 km/h (3 Bft) 100,00 %
23.03.2019 02:00 7,6 C 6,7 C 6,1 C 86 % 1025,3 hPa 0,0 l/m 0 min 0 min 0 W/m 16,1 km/h (3 Bft) 100,00 %
23.03.2019 02:02 7,6 C 6,7 C 6,1 C 86 % 1025,3 hPa 0,0 l/m 0 min 0 min 0 W/m 25,7 km/h (4 Bft) 97,87 %
23.03.2019 02:04 7,7 C 6,7 C 6,1 C 87 % 1025,4 hPa 0,0 l/m 0 min 0 min 0 W/m 12,9 km/h (3 Bft) 97,87 %
23.03.2019 02:06 7,6 C 6,7 C 6,1 C 87 % 1025,4 hPa 0,0 l/m 0 min 0 min 0 W/m 12,9 km/h (3 Bft) 100,00 %
23.03.2019 02:08 7,6 C 6,7 C 6,1 C 87 % 1025,4 hPa 0,0 l/m 0 min 0 min 0 W/m 12,9 km/h (3 Bft) 100,00 %
23.03.2019 02:10 7,6 C 6,7 C 6,1 C 87 % 1025,5 hPa 0,0 l/m 0 min 0 min 0 W/m 16,1 km/h (3 Bft) 97,87 %
23.03.2019 02:12 7,6 C 6,7 C 6,1 C 88 % 1025,5 hPa 0,0 l/m 0 min 0 min 0 W/m 16,1 km/h (3 Bft) 100,00 %
23.03.2019 02:14 7,6 C 6,7 C 6,1 C 88 % 1025,5 hPa 0,0 l/m 0 min 0 min 0 W/m 25,7 km/h (4 Bft) 100,00 %
23.03.2019 02:16 7,6 C 6,1 C 6,1 C 88 % 1025,6 hPa 0,0 l/m 0 min 0 min 0 W/m 12,9 km/h (3 Bft) 97,87 %
23.03.2019 02:18 7,6 C 6,1 C 6,1 C 88 % 1025,6 hPa 0,0 l/m 0 min 0 min 0 W/m 16,1 km/h (3 Bft) 100,00 %
23.03.2019 02:20 7,5 C 6,1 C 6,1 C 88 % 1025,6 hPa 0,0 l/m 0 min 0 min 0 W/m 22,5 km/h (4 Bft) 97,87 %
23.03.2019 02:22 7,5 C 6,1 C 6,1 C 89 % 1025,6 hPa 0,0 l/m 0 min 0 min 0 W/m 12,9 km/h (3 Bft) 100,00 %
23.03.2019 02:24 7,4 C 6,1 C 5,6 C 89 % 1025,6 hPa 0,0 l/m 0 min 0 min 0 W/m 16,1 km/h (3 Bft) 100,00 %
23.03.2019 02:26 7,4 C 6,1 C 5,6 C 89 % 1025,6 hPa 0,0 l/m 0 min 0 min 0 W/m 22,5 km/h (4 Bft) 100,00 %
23.03.2019 02:28 7,3 C 6,1 C 5,6 C 89 % 1025,6 hPa 0,0 l/m 0 min 0 min 0 W/m 22,5 km/h (4 Bft) 100,00 %
23.03.2019 02:30 7,3 C 6,1 C 5,6 C 89 % 1025,6 hPa 0,0 l/m 0 min 0 min 0 W/m 12,9 km/h (3 Bft) 100,00 %
23.03.2019 02:32 7,2 C 6,1 C 5,6 C 90 % 1025,6 hPa 0,0 l/m 0 min 0 min 0 W/m 12,9 km/h (3 Bft) 100,00 %
23.03.2019 02:34 7,2 C 6,1 C 5,6 C 90 % 1025,6 hPa 0,0 l/m 0 min 0 min 0 W/m 16,1 km/h (3 Bft) 100,00 %
23.03.2019 02:36 7,2 C 6,1 C 5,6 C 90 % 1025,7 hPa 0,0 l/m 0 min 0 min 0 W/m 19,3 km/h (3 Bft) 100,00 %
23.03.2019 02:38 7,1 C 6,1 C 5,6 C 90 % 1025,7 hPa 0,0 l/m 0 min 0 min 0 W/m 6,4 km/h (2 Bft) 100,00 %
23.03.2019 02:40 7,1 C 6,1 C 5,6 C 90 % 1025,7 hPa 0,0 l/m 0 min 0 min 0 W/m 19,3 km/h (3 Bft) 100,00 %
23.03.2019 02:42 7,1 C 6,1 C 5,6 C 90 % 1025,7 hPa 0,0 l/m 0 min 0 min 0 W/m 16,1 km/h (3 Bft) 100,00 %
23.03.2019 02:44 7,0 C 6,1 C 5,6 C 91 % 1025,7 hPa 0,0 l/m 0 min 0 min 0 W/m 19,3 km/h (3 Bft) 100,00 %
23.03.2019 02:46 7,0 C 5,6 C 5,6 C 91 % 1025,7 hPa 0,0 l/m 0 min 0 min 0 W/m 12,9 km/h (3 Bft) 100,00 %
23.03.2019 02:48 6,9 C 5,6 C 5,6 C 91 % 1025,7 hPa 0,0 l/m 0 min 0 min 0 W/m 16,1 km/h (3 Bft) 97,87 %
23.03.2019 02:50 6,9 C 5,6 C 5,6 C 91 % 1025,7 hPa 0,0 l/m 0 min 0 min 0 W/m 12,9 km/h (3 Bft) 100,00 %
23.03.2019 02:52 6,9 C 5,6 C 5,6 C 91 % 1025,7 hPa 0,0 l/m 0 min 0 min 0 W/m 12,9 km/h (3 Bft) 97,87 %
23.03.2019 02:54 6,8 C 5,6 C 5,6 C 91 % 1025,7 hPa 0,0 l/m 0 min 0 min 0 W/m 19,3 km/h (3 Bft) 100,00 %
23.03.2019 02:56 6,8 C 5,6 C 5,6 C 92 % 1025,7 hPa 0,0 l/m 0 min 0 min 0 W/m 19,3 km/h (3 Bft) 100,00 %
23.03.2019 02:58 6,8 C 5,6 C 5,6 C 92 % 1025,8 hPa 0,0 l/m 0 min 0 min 0 W/m 19,3 km/h (3 Bft) 100,00 %
23.03.2019 03:00 6,8 C 5,6 C 5,6 C 92 % 1025,7 hPa 0,0 l/m 0 min 0 min 0 W/m 16,1 km/h (3 Bft) 97,87 %
23.03.2019 03:02 6,7 C 5,6 C 5,6 C 92 % 1025,7 hPa 0,0 l/m 0 min 0 min 0 W/m 16,1 km/h (3 Bft) 97,87 %
23.03.2019 03:04 6,7 C 5,6 C 5,6 C 92 % 1025,7 hPa 0,0 l/m 0 min 0 min 0 W/m 12,9 km/h (3 Bft) 100,00 %
23.03.2019 03:06 6,7 C 5,6 C 5,6 C 92 % 1025,7 hPa 0,0 l/m 0 min 0 min 0 W/m 16,1 km/h (3 Bft) 100,00 %
23.03.2019 03:08 6,7 C 5,6 C 5,6 C 93 % 1025,7 hPa 0,0 l/m 0 min 0 min 0 W/m 16,1 km/h (3 Bft) 100,00 %
23.03.2019 03:10 6,7 C 5,6 C 5,6 C 93 % 1025,7 hPa 0,0 l/m 0 min 0 min 0 W/m 9,7 km/h (2 Bft) 97,83 %
23.03.2019 03:12 6,7 C 5,6 C 5,6 C 93 % 1025,7 hPa 0,0 l/m 0 min 0 min 0 W/m 9,7 km/h (2 Bft) 91,49 %
23.03.2019 03:14 6,7 C 5,6 C 5,6 C 93 % 1025,7 hPa 0,0 l/m 0 min 0 min 0 W/m 16,1 km/h (3 Bft) 95,74 %
23.03.2019 03:16 6,7 C 5,6 C 5,6 C 93 % 1025,8 hPa 0,0 l/m 0 min 0 min 0 W/m 9,7 km/h (2 Bft) 95,74 %
23.03.2019 03:18 6,7 C 5,6 C 5,6 C 93 % 1025,7 hPa 0,0 l/m 0 min 0 min 0 W/m 16,1 km/h (3 Bft) 95,74 %
23.03.2019 03:20 6,6 C 6,1 C 5,6 C 93 % 1025,7 hPa 0,0 l/m 0 min 0 min 0 W/m 6,4 km/h (2 Bft) 93,62 %
23.03.2019 03:22 6,7 C 5,6 C 5,6 C 93 % 1025,8 hPa 0,0 l/m 0 min 0 min 0 W/m 16,1 km/h (3 Bft) 95,65 %
23.03.2019 03:24 6,6 C 5,6 C 5,6 C 93 % 1025,7 hPa 0,0 l/m 0 min 0 min 0 W/m 12,9 km/h (3 Bft) 95,74 %
23.03.2019 03:26 6,6 C 6,1 C 5,6 C 93 % 1025,7 hPa 0,0 l/m 0 min 0 min 0 W/m 9,7 km/h (2 Bft) 95,74 %
23.03.2019 03:28 6,6 C 6,1 C 5,6 C 93 % 1025,8 hPa 0,0 l/m 0 min 0 min 0 W/m 25,7 km/h (4 Bft) 93,62 %
23.03.2019 03:30 6,6 C 6,1 C 5,6 C 94 % 1025,7 hPa 0,0 l/m 0 min 0 min 0 W/m 22,5 km/h (4 Bft) 95,74 %
23.03.2019 03:32 6,6 C 6,1 C 5,6 C 94 % 1025,7 hPa 0,0 l/m 0 min 0 min 0 W/m 19,3 km/h (3 Bft) 95,74 %
23.03.2019 03:34 6,6 C 6,1 C 5,6 C 94 % 1025,8 hPa 0,0 l/m 0 min 0 min 0 W/m 16,1 km/h (3 Bft) 95,65 %
23.03.2019 03:36 6,6 C 6,1 C 5,6 C 94 % 1025,8 hPa 0,0 l/m 0 min 0 min 0 W/m 19,3 km/h (3 Bft) 95,74 %
23.03.2019 03:38 6,6 C 6,1 C 5,6 C 94 % 1025,8 hPa 0,0 l/m 0 min 0 min 0 W/m 12,9 km/h (3 Bft) 93,62 %
23.03.2019 03:40 6,6 C 6,1 C 5,6 C 94 % 1025,8 hPa 0,0 l/m 0 min 0 min 0 W/m 9,7 km/h (2 Bft) 95,74 %
23.03.2019 03:42 6,6 C 6,1 C 5,6 C 94 % 1025,8 hPa 0,0 l/m 0 min 0 min 0 W/m 16,1 km/h (3 Bft) 91,49 %
23.03.2019 03:44 6,7 C 6,1 C 5,6 C 94 % 1025,9 hPa 0,0 l/m 0 min 0 min 0 W/m 16,1 km/h (3 Bft) 93,62 %
23.03.2019 03:46 6,6 C 6,1 C 5,6 C 94 % 1025,9 hPa 0,0 l/m 0 min 0 min 0 W/m 16,1 km/h (3 Bft) 93,48 %
23.03.2019 03:48 6,7 C 6,1 C 5,6 C 94 % 1026,0 hPa 0,0 l/m 0 min 0 min 0 W/m 9,7 km/h (2 Bft) 91,49 %
23.03.2019 03:50 6,7 C 6,1 C 5,6 C 94 % 1025,9 hPa 0,0 l/m 0 min 0 min 0 W/m 12,9 km/h (3 Bft) 93,62 %
23.03.2019 03:52 6,7 C 6,1 C 6,1 C 94 % 1026,0 hPa 0,0 l/m 0 min 0 min 0 W/m 6,4 km/h (2 Bft) 91,49 %
23.03.2019 03:54 6,7 C 6,1 C 5,6 C 94 % 1026,0 hPa 0,0 l/m 0 min 0 min 0 W/m 9,7 km/h (2 Bft) 95,74 %
23.03.2019 03:56 6,7 C 6,1 C 5,6 C 95 % 1025,9 hPa 0,0 l/m 0 min 0 min 0 W/m 12,9 km/h (3 Bft) 93,48 %
23.03.2019 03:58 6,7 C 6,1 C 6,1 C 95 % 1025,9 hPa 0,0 l/m 0 min 0 min 0 W/m 12,9 km/h (3 Bft) 95,74 %
23.03.2019 04:00 6,7 C 6,1 C 5,6 C 95 % 1026,0 hPa 0,0 l/m 0 min 0 min 0 W/m 12,9 km/h (3 Bft) 95,74 %
23.03.2019 04:02 6,7 C 6,1 C 5,6 C 94 % 1026,0 hPa 0,0 l/m 0 min 0 min 0 W/m 16,1 km/h (3 Bft) 94,44 %
23.03.2019 04:04 6,7 C 6,1 C 6,1 C 95 % 1026,0 hPa 0,0 l/m 0 min 0 min 0 W/m 12,9 km/h (3 Bft) 100,00 %
23.03.2019 04:06 6,7 C 6,1 C 6,1 C 95 % 1026,0 hPa 0,0 l/m 0 min 0 min 0 W/m 9,7 km/h (2 Bft) 95,74 %
23.03.2019 04:08 6,7 C 6,1 C 6,1 C 95 % 1026,0 hPa 0,0 l/m 0 min 0 min 0 W/m 6,4 km/h (2 Bft) 93,48 %
23.03.2019 04:10 6,7 C 6,1 C 6,1 C 95 % 1026,0 hPa 0,0 l/m 0 min 0 min 0 W/m 3,2 km/h (1 Bft) 91,49 %
23.03.2019 04:12 6,7 C 6,1 C 6,1 C 95 % 1026,1 hPa 0,0 l/m 0 min 0 min 0 W/m 16,1 km/h (3 Bft) 93,62 %
23.03.2019 04:14 6,7 C 6,1 C 6,1 C 95 % 1026,1 hPa 0,0 l/m 0 min 0 min 0 W/m 6,4 km/h (2 Bft) 95,74 %
23.03.2019 04:16 6,7 C 6,1 C 6,1 C 95 % 1026,1 hPa 0,0 l/m 0 min 0 min 0 W/m 6,4 km/h (2 Bft) 95,74 %
23.03.2019 04:18 6,7 C 6,1 C 6,1 C 95 % 1026,1 hPa 0,0 l/m 0 min 0 min 0 W/m 6,4 km/h (2 Bft) 97,87 %
23.03.2019 04:20 6,7 C 6,1 C 6,1 C 95 % 1026,1 hPa 0,0 l/m 0 min 0 min 0 W/m 9,7 km/h (2 Bft) 95,65 %
23.03.2019 04:22 6,7 C 6,1 C 6,1 C 95 % 1026,2 hPa 0,0 l/m 0 min 0 min 0 W/m 3,2 km/h (1 Bft) 97,87 %
23.03.2019 04:24 6,7 C 6,1 C 6,1 C 95 % 1026,1 hPa 0,0 l/m 0 min 0 min 0 W/m 3,2 km/h (1 Bft) 97,87 %
23.03.2019 04:26 6,7 C 6,1 C 6,1 C 95 % 1026,1 hPa 0,0 l/m 0 min 0 min 0 W/m 3,2 km/h (1 Bft) 95,74 %
23.03.2019 04:28 6,7 C 6,1 C 6,1 C 95 % 1026,1 hPa 0,0 l/m 0 min 0 min 0 W/m 3,2 km/h (1 Bft) 97,87 %
23.03.2019 04:30 6,7 C 6,1 C 6,1 C 95 % 1026,1 hPa 0,0 l/m 0 min 0 min 0 W/m 9,7 km/h (2 Bft) 100,00 %
23.03.2019 04:32 6,7 C 6,1 C 6,1 C 95 % 1026,1 hPa 0,0 l/m 0 min 0 min 0 W/m 9,7 km/h (2 Bft) 97,83 %
23.03.2019 04:34 6,8 C 6,1 C 6,1 C 95 % 1026,1 hPa 0,0 l/m 0 min 0 min 0 W/m 0,0 km/h (0 Bft) 100,00 %
23.03.2019 04:36 6,7 C 6,1 C 6,1 C 95 % 1026,0 hPa 0,0 l/m 0 min 0 min 0 W/m 0,0 km/h (0 Bft) 100,00 %
23.03.2019 04:38 6,7 C 6,1 C 6,1 C 95 % 1026,0 hPa 0,0 l/m 0 min 0 min 0 W/m 0,0 km/h (0 Bft) 100,00 %
23.03.2019 04:40 6,7 C 6,1 C 6,1 C 95 % 1026,0 hPa 0,0 l/m 0 min 0 min 0 W/m 0,0 km/h (0 Bft) 100,00 %
23.03.2019 04:42 6,8 C 6,1 C 6,1 C 95 % 1026,0 hPa 0,0 l/m 0 min 0 min 0 W/m 0,0 km/h (0 Bft) 95,74 %
23.03.2019 04:44 6,8 C 6,1 C 6,1 C 95 % 1026,1 hPa 0,0 l/m 0 min 0 min 0 W/m 0,0 km/h (0 Bft) 100,00 %
23.03.2019 04:46 6,8 C 6,1 C 6,1 C 95 % 1026,1 hPa 0,0 l/m 0 min 0 min 0 W/m 3,2 km/h (1 Bft) 100,00 %
23.03.2019 04:48 6,8 C 6,1 C 6,1 C 95 % 1026,1 hPa 0,0 l/m 0 min 0 min 0 W/m 3,2 km/h (1 Bft) 100,00 %
23.03.2019 04:50 6,8 C 6,1 C 6,1 C 95 % 1026,2 hPa 0,0 l/m 0 min 0 min 0 W/m 6,4 km/h (2 Bft) 100,00 %
23.03.2019 04:52 6,8 C 6,1 C 6,1 C 95 % 1026,1 hPa 0,0 l/m 0 min 0 min 0 W/m 3,2 km/h (1 Bft) 100,00 %
23.03.2019 04:54 6,8 C 6,1 C 6,1 C 95 % 1026,2 hPa 0,0 l/m 0 min 0 min 0 W/m 0,0 km/h (0 Bft) 100,00 %
23.03.2019 04:56 6,8 C 6,1 C 6,1 C 95 % 1026,2 hPa 0,0 l/m 0 min 0 min 0 W/m 3,2 km/h (1 Bft) 97,87 %
23.03.2019 04:58 6,8 C 6,7 C 6,1 C 95 % 1026,2 hPa 0,0 l/m 0 min 0 min 0 W/m 0,0 km/h (0 Bft) 97,87 %
23.03.2019 05:00 6,8 C 6,1 C 6,1 C 95 % 1026,1 hPa 0,0 l/m 0 min 0 min 0 W/m 0,0 km/h (0 Bft) 97,87 %
23.03.2019 05:02 6,8 C 6,1 C 6,1 C 95 % 1026,1 hPa 0,0 l/m 0 min 0 min 0 W/m 0,0 km/h (0 Bft) 97,87 %
23.03.2019 05:04 6,8 C 6,7 C 6,1 C 95 % 1026,2 hPa 0,0 l/m 0 min 0 min 0 W/m 3,2 km/h (1 Bft) 97,87 %
23.03.2019 05:05 6,8 C 6,7 C 6,1 C 95 % 1026,2 hPa 0,0 l/m 0 min 0 min 0 W/m 3,2 km/h (1 Bft) 100,00 %
23.03.2019 05:10 6,8 C 6,7 C 6,1 C 95 % 1026,2 hPa 0,0 l/m 0 min 0 min 0 W/m 0,0 km/h (0 Bft) 100,00 %
23.03.2019 05:12 6,8 C 6,7 C 6,1 C 95 % 1026,2 hPa 0,0 l/m 0 min 0 min 0 W/m 0,0 km/h (0 Bft) 97,06 %
23.03.2019 05:14 6,8 C 6,7 C 6,1 C 95 % 1026,2 hPa 0,0 l/m 0 min 0 min 0 W/m 0,0 km/h (0 Bft) 97,87 %
23.03.2019 05:19 6,8 C 6,7 C 6,1 C 95 % 1026,2 hPa 0,0 l/m 0 min 0 min 0 W/m 3,2 km/h (1 Bft) 100,00 %
23.03.2019 05:20 6,8 C 6,7 C 6,1 C 95 % 1026,2 hPa 0,0 l/m 0 min 0 min 0 W/m 0,0 km/h (0 Bft) 100,00 %
23.03.2019 05:22 6,9 C 6,7 C 6,1 C 95 % 1026,2 hPa 0,0 l/m 0 min 0 min 0 W/m 3,2 km/h (1 Bft) 97,87 %
23.03.2019 05:24 6,8 C 6,7 C 6,1 C 95 % 1026,2 hPa 0,0 l/m 0 min 0 min 0 W/m 0,0 km/h (0 Bft) 97,87 %
23.03.2019 05:26 6,9 C 6,7 C 6,1 C 95 % 1026,2 hPa 0,0 l/m 0 min 0 min 0 W/m 0,0 km/h (0 Bft) 100,00 %
23.03.2019 05:28 6,9 C 6,7 C 6,1 C 95 % 1026,2 hPa 0,0 l/m 0 min 0 min 0 W/m 0,0 km/h (0 Bft) 100,00 %
23.03.2019 05:30 6,9 C 6,7 C 6,1 C 95 % 1026,2 hPa 0,0 l/m 0 min 0 min 0 W/m 0,0 km/h (0 Bft) 97,87 %
23.03.2019 05:32 6,9 C 6,7 C 6,1 C 95 % 1026,3 hPa 0,0 l/m 0 min 0 min 0 W/m 0,0 km/h (0 Bft) 97,87 %
23.03.2019 05:34 6,9 C 6,7 C 6,1 C 95 % 1026,3 hPa 0,0 l/m 0 min 0 min 0 W/m 0,0 km/h (0 Bft) 100,00 %
23.03.2019 05:36 6,9 C 6,7 C 6,1 C 95 % 1026,3 hPa 0,0 l/m 0 min 0 min 0 W/m 0,0 km/h (0 Bft) 96,55 %
23.03.2019 05:38 6,9 C 6,7 C 6,1 C 95 % 1026,4 hPa 0,0 l/m 0 min 0 min 0 W/m 0,0 km/h (0 Bft) 97,14 %
23.03.2019 05:40 6,9 C 6,7 C 6,1 C 95 % 1026,4 hPa 0,0 l/m 0 min 0 min 0 W/m 0,0 km/h (0 Bft) 97,87 %
23.03.2019 05:42 6,9 C 6,7 C 6,1 C 95 % 1026,4 hPa 0,0 l/m 0 min 0 min 0 W/m 0,0 km/h (0 Bft) 100,00 %
23.03.2019 05:44 6,9 C 6,7 C 6,1 C 95 % 1026,4 hPa 0,0 l/m 0 min 0 min 0 W/m 0,0 km/h (0 Bft) 97,87 %
23.03.2019 05:46 6,9 C 6,7 C 6,1 C 95 % 1026,5 hPa 0,0 l/m 0 min 0 min 0 W/m 0,0 km/h (0 Bft) 97,87 %
23.03.2019 05:48 6,9 C 6,7 C 6,1 C 95 % 1026,5 hPa 0,0 l/m 0 min 0 min 0 W/m 3,2 km/h (1 Bft) 97,87 %
23.03.2019 05:50 6,9 C 6,7 C 6,1 C 95 % 1026,5 hPa 0,0 l/m 0 min 0 min 0 W/m 3,2 km/h (1 Bft) 98,11 %
23.03.2019 05:52 6,9 C 6,7 C 6,1 C 95 % 1026,6 hPa 0,0 l/m 0 min 0 min 0 W/m 0,0 km/h (0 Bft) 97,87 %
23.03.2019 05:54 6,9 C 6,7 C 6,1 C 95 % 1026,6 hPa 0,0 l/m 0 min 0 min 0 W/m 0,0 km/h (0 Bft) 97,87 %
23.03.2019 05:56 6,9 C 6,7 C 6,1 C 95 % 1026,7 hPa 0,0 l/m 0 min 0 min 0 W/m 0,0 km/h (0 Bft) 100,00 %
23.03.2019 05:58 6,9 C 6,7 C 6,1 C 95 % 1026,6 hPa 0,0 l/m 0 min 0 min 0 W/m 0,0 km/h (0 Bft) 97,87 %
23.03.2019 06:00 6,9 C 6,7 C 6,1 C 95 % 1026,6 hPa 0,0 l/m 0 min 0 min 0 W/m 0,0 km/h (0 Bft) 95,74 %
23.03.2019 06:02 6,9 C 6,7 C 6,1 C 95 % 1026,5 hPa 0,0 l/m 0 min 0 min 0 W/m 3,2 km/h (1 Bft) 97,87 %
23.03.2019 06:04 6,9 C 6,7 C 6,1 C 95 % 1026,7 hPa 0,0 l/m 0 min 0 min 0 W/m 6,4 km/h (2 Bft) 97,87 %
23.03.2019 06:08 6,9 C 6,7 C 6,7 C 95 % 1026,6 hPa 0,0 l/m 0 min 0 min 0 W/m 3,2 km/h (1 Bft) 97,85 %
23.03.2019 06:10 7,0 C 6,7 C 6,7 C 95 % 1026,6 hPa 0,0 l/m 0 min 0 min 0 W/m 0,0 km/h (0 Bft) 97,87 %
23.03.2019 06:12 7,0 C 6,7 C 6,7 C 95 % 1026,7 hPa 0,0 l/m 0 min 0 min 0 W/m 0,0 km/h (0 Bft) 93,62 %
23.03.2019 06:14 7,0 C 6,7 C 6,7 C 95 % 1026,7 hPa 0,0 l/m 0 min 0 min 0 W/m 0,0 km/h (0 Bft) 97,87 %
23.03.2019 06:16 7,0 C 6,7 C 6,7 C 95 % 1026,7 hPa 0,0 l/m 0 min 0 min 0 W/m 0,0 km/h (0 Bft) 97,87 %
23.03.2019 06:18 7,0 C 6,7 C 6,7 C 95 % 1026,7 hPa 0,0 l/m 0 min 0 min 0 W/m 0,0 km/h (0 Bft) 97,83 %
23.03.2019 06:20 7,0 C 6,7 C 6,7 C 95 % 1026,7 hPa 0,0 l/m 0 min 0 min 0 W/m 3,2 km/h (1 Bft) 97,87 %
23.03.2019 06:22 7,0 C 6,7 C 6,7 C 95 % 1026,7 hPa 0,0 l/m 0 min 0 min 0 W/m 0,0 km/h (0 Bft) 95,74 %
23.03.2019 06:24 7,0 C 6,7 C 6,7 C 95 % 1026,6 hPa 0,0 l/m 0 min 0 min 0 W/m 0,0 km/h (0 Bft) 97,87 %
23.03.2019 06:26 7,0 C 6,7 C 6,7 C 95 % 1026,7 hPa 0,0 l/m 0 min 0 min 0 W/m 0,0 km/h (0 Bft) 97,87 %
23.03.2019 06:28 7,0 C 6,7 C 6,7 C 95 % 1026,8 hPa 0,0 l/m 0 min 0 min 0 W/m 3,2 km/h (1 Bft) 100,00 %
23.03.2019 06:30 7,0 C 6,7 C 6,7 C 95 % 1026,8 hPa 0,0 l/m 0 min 0 min 0 W/m 0,0 km/h (0 Bft) 100,00 %
23.03.2019 06:32 7,0 C 6,7 C 6,7 C 95 % 1026,9 hPa 0,0 l/m 0 min 0 min 0 W/m 0,0 km/h (0 Bft) 97,87 %
23.03.2019 06:34 7,0 C 6,7 C 6,7 C 95 % 1026,9 hPa 0,0 l/m 0 min 0 min 0 W/m 0,0 km/h (0 Bft) 97,87 %
23.03.2019 06:36 7,0 C 6,7 C 6,7 C 95 % 1026,9 hPa 0,0 l/m 0 min 0 min 0 W/m 0,0 km/h (0 Bft) 98,31 %
23.03.2019 06:38 7,0 C 6,7 C 6,7 C 95 % 1026,9 hPa 0,0 l/m 0 min 0 min 0 W/m 3,2 km/h (1 Bft) 97,14 %
23.03.2019 06:40 7,0 C 6,7 C 6,7 C 95 % 1026,9 hPa 0,0 l/m 0 min 0 min 0 W/m 0,0 km/h (0 Bft) 97,87 %
23.03.2019 06:42 7,0 C 6,7 C 6,7 C 95 % 1026,9 hPa 0,0 l/m 0 min 0 min 0 W/m 0,0 km/h (0 Bft) 97,83 %
23.03.2019 06:44 7,0 C 6,7 C 6,7 C 95 % 1027,0 hPa 0,0 l/m 0 min 0 min 0 W/m 6,4 km/h (2 Bft) 97,87 %
23.03.2019 06:46 7,0 C 6,7 C 6,7 C 95 % 1027,0 hPa 0,0 l/m 0 min 0 min 0 W/m 6,4 km/h (2 Bft) 95,74 %
23.03.2019 06:48 7,0 C 6,7 C 6,7 C 95 % 1027,0 hPa 0,0 l/m 0 min 0 min 0 W/m 3,2 km/h (1 Bft) 97,87 %
23.03.2019 06:50 7,0 C 6,7 C 6,7 C 95 % 1027,0 hPa 0,0 l/m 0 min 0 min 2 W/m 3,2 km/h (1 Bft) 97,87 %
23.03.2019 06:52 7,0 C 6,7 C 6,7 C 95 % 1027,0 hPa 0,0 l/m 0 min 0 min 5 W/m 6,4 km/h (2 Bft) 97,87 %
23.03.2019 06:54 7,1 C 6,7 C 6,7 C 95 % 1027,1 hPa 0,0 l/m 0 min 0 min 5 W/m 3,2 km/h (1 Bft) 97,83 %
23.03.2019 06:56 7,1 C 6,7 C 6,7 C 95 % 1027,0 hPa 0,0 l/m 0 min 0 min 7 W/m 0,0 km/h (0 Bft) 97,87 %
23.03.2019 06:58 7,1 C 6,7 C 6,7 C 94 % 1027,1 hPa 0,0 l/m 0 min 0 min 7 W/m 3,2 km/h (1 Bft) 95,74 %
23.03.2019 07:00 7,1 C 6,7 C 6,7 C 94 % 1027,1 hPa 0,0 l/m 0 min 0 min 7 W/m 3,2 km/h (1 Bft) 97,87 %
23.03.2019 07:02 7,1 C 6,7 C 6,7 C 94 % 1027,1 hPa 0,0 l/m 0 min 0 min 9 W/m 6,4 km/h (2 Bft) 97,87 %
23.03.2019 07:04 7,1 C 6,7 C 6,7 C 94 % 1027,2 hPa 0,0 l/m 0 min 0 min 8 W/m 3,2 km/h (1 Bft) 93,62 %
23.03.2019 07:06 7,1 C 6,7 C 6,7 C 94 % 1027,2 hPa 0,0 l/m 0 min 0 min 7 W/m 3,2 km/h (1 Bft) 95,65 %
23.03.2019 07:08 7,1 C 6,7 C 6,7 C 94 % 1027,1 hPa 0,0 l/m 0 min 0 min 9 W/m 0,0 km/h (0 Bft) 91,49 %
23.03.2019 07:10 7,1 C 7,2 C 6,7 C 94 % 1027,2 hPa 0,0 l/m 0 min 0 min 9 W/m 6,4 km/h (2 Bft) 95,74 %
23.03.2019 07:12 7,1 C 7,2 C 6,7 C 94 % 1027,2 hPa 0,0 l/m 0 min 0 min 11 W/m 3,2 km/h (1 Bft) 93,62 %
23.03.2019 07:14 7,1 C 7,2 C 6,7 C 94 % 1027,1 hPa 0,0 l/m 0 min 0 min 11 W/m 6,4 km/h (2 Bft) 95,74 %
23.03.2019 07:16 7,1 C 7,2 C 6,7 C 94 % 1027,1 hPa 0,0 l/m 0 min 0 min 11 W/m 9,7 km/h (2 Bft) 95,65 %
23.03.2019 07:18 7,1 C 7,2 C 6,7 C 94 % 1027,1 hPa 0,0 l/m 0 min 0 min 12 W/m 6,4 km/h (2 Bft) 95,74 %
23.03.2019 07:20 7,1 C 7,2 C 6,7 C 93 % 1027,1 hPa 0,0 l/m 0 min 0 min 12 W/m 3,2 km/h (1 Bft) 95,74 %
23.03.2019 07:22 7,1 C 7,2 C 6,7 C 93 % 1027,2 hPa 0,0 l/m 0 min 0 min 12 W/m 0,0 km/h (0 Bft) 93,62 %
23.03.2019 07:24 7,2 C 7,2 C 6,7 C 93 % 1027,2 hPa 0,0 l/m 0 min 0 min 13 W/m 0,0 km/h (0 Bft) 95,74 %
23.03.2019 07:26 7,2 C 7,2 C 6,7 C 93 % 1027,2 hPa 0,0 l/m 0 min 0 min 14 W/m 6,4 km/h (2 Bft) 97,87 %
23.03.2019 07:28 7,2 C 7,2 C 6,7 C 93 % 1027,3 hPa 0,0 l/m 0 min 0 min 14 W/m 0,0 km/h (0 Bft) 97,83 %
23.03.2019 07:30 7,2 C 7,2 C 6,7 C 93 % 1027,2 hPa 0,0 l/m 0 min 0 min 15 W/m 0,0 km/h (0 Bft) 97,87 %
23.03.2019 07:32 7,2 C 7,2 C 6,7 C 93 % 1027,2 hPa 0,0 l/m 0 min 0 min 16 W/m 0,0 km/h (0 Bft) 95,74 %
23.03.2019 07:34 7,2 C 7,2 C 6,7 C 93 % 1027,2 hPa 0,0 l/m 0 min 0 min 18 W/m 0,0 km/h (0 Bft) 97,87 %
23.03.2019 07:36 7,2 C 7,2 C 6,7 C 93 % 1027,1 hPa 0,0 l/m 0 min 0 min 23 W/m 0,0 km/h (0 Bft) 97,87 %
23.03.2019 07:38 7,2 C 7,2 C 6,7 C 93 % 1027,2 hPa 0,0 l/m 0 min 0 min 25 W/m 0,0 km/h (0 Bft) 97,87 %
23.03.2019 07:40 7,2 C 7,2 C 6,7 C 93 % 1027,2 hPa 0,0 l/m 0 min 0 min 24 W/m 0,0 km/h (0 Bft) 97,83 %
23.03.2019 07:42 7,2 C 7,2 C 6,7 C 93 % 1027,0 hPa 0,0 l/m 0 min 0 min 27 W/m 0,0 km/h (0 Bft) 95,74 %
23.03.2019 07:44 7,3 C 7,2 C 6,7 C 93 % 1027,1 hPa 0,0 l/m 0 min 0 min 29 W/m 0,0 km/h (0 Bft) 95,74 %
23.03.2019 07:46 7,3 C 7,2 C 7,2 C 93 % 1027,1 hPa 0,0 l/m 0 min 0 min 26 W/m 0,0 km/h (0 Bft) 91,49 %
23.03.2019 07:48 7,3 C 7,2 C 7,2 C 93 % 1027,1 hPa 0,0 l/m 0 min 0 min 26 W/m 0,0 km/h (0 Bft) 97,87 %
23.03.2019 07:50 7,3 C 7,2 C 7,2 C 93 % 1027,1 hPa 0,0 l/m 0 min 0 min 27 W/m 0,0 km/h (0 Bft) 97,87 %
23.03.2019 07:52 7,3 C 7,2 C 7,2 C 93 % 1027,1 hPa 0,0 l/m 0 min 0 min 30 W/m 0,0 km/h (0 Bft) 95,65 %
23.03.2019 07:54 7,3 C 7,2 C 7,2 C 93 % 1027,2 hPa 0,0 l/m 0 min 0 min 32 W/m 0,0 km/h (0 Bft) 97,87 %
23.03.2019 07:56 7,3 C 7,2 C 7,2 C 93 % 1027,2 hPa 0,0 l/m 0 min 0 min 33 W/m 0,0 km/h (0 Bft) 97,87 %
23.03.2019 07:58 7,3 C 7,2 C 7,2 C 93 % 1027,2 hPa 0,0 l/m 0 min 0 min 30 W/m 0,0 km/h (0 Bft) 97,87 %
23.03.2019 08:00 7,3 C 7,8 C 7,2 C 93 % 1027,2 hPa 0,0 l/m 0 min 0 min 27 W/m 0,0 km/h (0 Bft) 97,87 %
23.03.2019 08:02 7,3 C 7,8 C 7,2 C 92 % 1027,2 hPa 0,0 l/m 0 min 0 min 33 W/m 0,0 km/h (0 Bft) 97,87 %
23.03.2019 08:04 7,3 C 7,8 C 7,2 C 92 % 1027,2 hPa 0,0 l/m 0 min 0 min 39 W/m 0,0 km/h (0 Bft) 95,65 %
23.03.2019 08:06 7,4 C 7,8 C 7,2 C 92 % 1027,1 hPa 0,0 l/m 0 min 0 min 38 W/m 0,0 km/h (0 Bft) 96,61 %
23.03.2019 08:08 7,4 C 7,8 C 7,2 C 92 % 1027,2 hPa 0,0 l/m 0 min 0 min 37 W/m 0,0 km/h (0 Bft) 97,14 %
23.03.2019 08:10 7,4 C 7,8 C 7,2 C 92 % 1027,2 hPa 0,0 l/m 0 min 0 min 38 W/m 0,0 km/h (0 Bft) 97,87 %
23.03.2019 08:12 7,4 C 7,8 C 7,2 C 92 % 1027,2 hPa 0,0 l/m 0 min 0 min 42 W/m 0,0 km/h (0 Bft) 100,00 %
23.03.2019 08:14 7,4 C 7,8 C 7,2 C 92 % 1027,2 hPa 0,0 l/m 0 min 0 min 43 W/m 0,0 km/h (0 Bft) 97,87 %
23.03.2019 08:16 7,4 C 7,8 C 7,2 C 92 % 1027,3 hPa 0,0 l/m 0 min 0 min 43 W/m 0,0 km/h (0 Bft) 93,48 %
23.03.2019 08:18 7,4 C 7,8 C 7,2 C 92 % 1027,3 hPa 0,0 l/m 0 min 0 min 43 W/m 0,0 km/h (0 Bft) 100,00 %
23.03.2019 08:20 7,5 C 7,8 C 7,2 C 92 % 1027,2 hPa 0,0 l/m 0 min 0 min 48 W/m 0,0 km/h (0 Bft) 97,87 %
23.03.2019 08:22 7,5 C 7,8 C 7,2 C 92 % 1027,2 hPa 0,0 l/m 0 min 0 min 51 W/m 0,0 km/h (0 Bft) 97,87 %
23.03.2019 08:24 7,5 C 7,8 C 7,2 C 92 % 1027,3 hPa 0,0 l/m 0 min 0 min 48 W/m 0,0 km/h (0 Bft) 95,74 %
23.03.2019 08:26 7,6 C 7,8 C 7,2 C 92 % 1027,2 hPa 0,0 l/m 0 min 0 min 49 W/m 0,0 km/h (0 Bft) 97,83 %
23.03.2019 08:28 7,6 C 7,8 C 7,2 C 92 % 1027,3 hPa 0,0 l/m 0 min 0 min 51 W/m 0,0 km/h (0 Bft) 97,87 %
23.03.2019 08:30 7,6 C 7,8 C 7,8 C 92 % 1027,3 hPa 0,0 l/m 0 min 0 min 50 W/m 0,0 km/h (0 Bft) 95,74 %
23.03.2019 08:32 7,6 C 7,8 C 7,8 C 92 % 1027,4 hPa 0,0 l/m 0 min 0 min 51 W/m 0,0 km/h (0 Bft) 95,74 %
23.03.2019 08:34 7,7 C 7,8 C 7,8 C 92 % 1027,3 hPa 0,0 l/m 0 min 0 min 55 W/m 0,0 km/h (0 Bft) 97,87 %
23.03.2019 08:36 7,7 C 8,3 C 7,8 C 91 % 1027,4 hPa 0,0 l/m 0 min 0 min 54 W/m 0,0 km/h (0 Bft) 98,28 %
23.03.2019 08:38 7,7 C 8,3 C 7,8 C 91 % 1027,3 hPa 0,0 l/m 0 min 0 min 51 W/m 0,0 km/h (0 Bft) 97,14 %
23.03.2019 08:40 7,7 C 8,3 C 7,8 C 91 % 1027,4 hPa 0,0 l/m 0 min 0 min 51 W/m 0,0 km/h (0 Bft) 95,74 %
23.03.2019 08:42 7,7 C 8,3 C 7,8 C 91 % 1027,4 hPa 0,0 l/m 0 min 0 min 51 W/m 0,0 km/h (0 Bft) 97,87 %
23.03.2019 08:44 7,7 C 8,3 C 7,8 C 91 % 1027,4 hPa 0,0 l/m 0 min 0 min 55 W/m 0,0 km/h (0 Bft) 97,87 %
23.03.2019 08:46 7,8 C 8,3 C 7,8 C 91 % 1027,4 hPa 0,0 l/m 0 min 0 min 56 W/m 0,0 km/h (0 Bft) 93,62 %
23.03.2019 08:48 7,8 C 8,3 C 7,8 C 91 % 1027,4 hPa 0,0 l/m 0 min 0 min 54 W/m 0,0 km/h (0 Bft) 97,87 %
23.03.2019 08:50 7,8 C 8,3 C 7,8 C 91 % 1027,4 hPa 0,0 l/m 0 min 0 min 53 W/m 0,0 km/h (0 Bft) 95,65 %
23.03.2019 08:52 7,8 C 8,3 C 7,8 C 91 % 1027,5 hPa 0,0 l/m 0 min 0 min 54 W/m 0,0 km/h (0 Bft) 97,87 %
23.03.2019 08:54 7,9 C 8,3 C 7,8 C 91 % 1027,5 hPa 0,0 l/m 0 min 0 min 57 W/m 0,0 km/h (0 Bft) 97,87 %
23.03.2019 08:56 7,9 C 8,3 C 7,8 C 91 % 1027,5 hPa 0,0 l/m 0 min 0 min 62 W/m 0,0 km/h (0 Bft) 97,87 %
23.03.2019 08:58 7,9 C 8,3 C 7,8 C 91 % 1027,5 hPa 0,0 l/m 0 min 0 min 64 W/m 0,0 km/h (0 Bft) 97,87 %
23.03.2019 09:00 7,9 C 8,3 C 7,8 C 90 % 1027,5 hPa 0,0 l/m 0 min 0 min 63 W/m 0,0 km/h (0 Bft) 97,87 %
23.03.2019 09:02 7,9 C 8,3 C 7,8 C 90 % 1027,5 hPa 0,0 l/m 0 min 0 min 63 W/m 0,0 km/h (0 Bft) 97,83 %
23.03.2019 09:04 8,0 C 8,3 C 7,8 C 90 % 1027,5 hPa 0,0 l/m 0 min 0 min 66 W/m 6,4 km/h (2 Bft) 97,87 %
23.03.2019 09:06 8,0 C 8,3 C 7,8 C 90 % 1027,6 hPa 0,0 l/m 0 min 0 min 69 W/m 6,4 km/h (2 Bft) 95,74 %
23.03.2019 09:08 8,1 C 8,3 C 7,8 C 90 % 1027,5 hPa 0,0 l/m 0 min 0 min 67 W/m 3,2 km/h (1 Bft) 100,00 %
23.03.2019 09:10 8,1 C 8,3 C 7,8 C 90 % 1027,4 hPa 0,0 l/m 0 min 0 min 67 W/m 0,0 km/h (0 Bft) 97,87 %
23.03.2019 09:12 8,1 C 8,9 C 8,3 C 90 % 1027,5 hPa 0,0 l/m 0 min 0 min 70 W/m 0,0 km/h (0 Bft) 97,87 %
23.03.2019 09:14 8,1 C 8,3 C 7,8 C 90 % 1027,5 hPa 0,0 l/m 0 min 0 min 74 W/m 6,4 km/h (2 Bft) 97,83 %
23.03.2019 09:16 8,2 C 8,3 C 8,3 C 90 % 1027,6 hPa 0,0 l/m 0 min 0 min 72 W/m 0,0 km/h (0 Bft) 97,87 %
23.03.2019 09:18 8,2 C 8,3 C 8,3 C 89 % 1027,6 hPa 0,0 l/m 0 min 0 min 72 W/m 3,2 km/h (1 Bft) 97,87 %
23.03.2019 09:20 8,2 C 8,3 C 8,3 C 90 % 1027,6 hPa 0,0 l/m 0 min 0 min 72 W/m 3,2 km/h (1 Bft) 97,87 %
23.03.2019 09:22 8,2 C 8,9 C 8,3 C 89 % 1027,6 hPa 0,0 l/m 0 min 0 min 74 W/m 0,0 km/h (0 Bft) 95,74 %
23.03.2019 09:24 8,2 C 8,9 C 8,3 C 89 % 1027,5 hPa 0,0 l/m 0 min 0 min 73 W/m 3,2 km/h (1 Bft) 97,87 %
23.03.2019 09:26 8,3 C 8,9 C 8,3 C 89 % 1027,5 hPa 0,0 l/m 0 min 0 min 76 W/m 3,2 km/h (1 Bft) 95,65 %
23.03.2019 09:28 8,3 C 8,9 C 8,3 C 89 % 1027,5 hPa 0,0 l/m 0 min 0 min 79 W/m 6,4 km/h (2 Bft) 97,87 %
23.03.2019 09:30 8,3 C 8,9 C 8,3 C 89 % 1027,6 hPa 0,0 l/m 0 min 0 min 79 W/m 3,2 km/h (1 Bft) 97,87 %
23.03.2019 09:32 8,3 C 8,9 C 8,3 C 89 % 1027,6 hPa 0,0 l/m 0 min 0 min 76 W/m 3,2 km/h (1 Bft) 97,87 %
23.03.2019 09:34 8,4 C 8,9 C 8,3 C 89 % 1027,6 hPa 0,0 l/m 0 min 0 min 78 W/m 3,2 km/h (1 Bft) 97,87 %
23.03.2019 09:36 8,4 C 8,9 C 8,3 C 89 % 1027,6 hPa 0,0 l/m 0 min 0 min 85 W/m 0,0 km/h (0 Bft) 96,55 %
23.03.2019 09:38 8,4 C 8,9 C 8,3 C 89 % 1027,6 hPa 0,0 l/m 0 min 0 min 85 W/m 3,2 km/h (1 Bft) 100,00 %
23.03.2019 09:40 8,4 C 8,9 C 8,3 C 89 % 1027,6 hPa 0,0 l/m 0 min 0 min 84 W/m 0,0 km/h (0 Bft) 95,74 %
23.03.2019 09:42 8,4 C 8,9 C 8,3 C 89 % 1027,6 hPa 0,0 l/m 0 min 0 min 87 W/m 3,2 km/h (1 Bft) 95,74 %
23.03.2019 09:44 8,5 C 8,9 C 8,3 C 89 % 1027,7 hPa 0,0 l/m 0 min 0 min 86 W/m 3,2 km/h (1 Bft) 97,87 %
23.03.2019 09:46 8,5 C 8,9 C 8,3 C 88 % 1027,6 hPa 0,0 l/m 0 min 0 min 83 W/m 3,2 km/h (1 Bft) 97,87 %
23.03.2019 09:48 8,5 C 8,9 C 8,3 C 88 % 1027,7 hPa 0,0 l/m 0 min 0 min 84 W/m 3,2 km/h (1 Bft) 97,87 %
23.03.2019 09:50 8,6 C 8,9 C 8,3 C 88 % 1027,7 hPa 0,0 l/m 0 min 0 min 85 W/m 3,2 km/h (1 Bft) 97,83 %
23.03.2019 09:52 8,6 C 8,9 C 8,9 C 88 % 1027,8 hPa 0,0 l/m 0 min 0 min 95 W/m 3,2 km/h (1 Bft) 97,87 %
23.03.2019 09:54 8,6 C 9,4 C 8,9 C 88 % 1027,7 hPa 0,0 l/m 0 min 0 min 89 W/m 6,4 km/h (2 Bft) 100,00 %
23.03.2019 09:56 8,7 C 9,4 C 8,9 C 88 % 1027,7 hPa 0,0 l/m 0 min 0 min 83 W/m 6,4 km/h (2 Bft) 97,87 %
23.03.2019 09:58 8,7 C 9,4 C 8,9 C 88 % 1027,7 hPa 0,0 l/m 0 min 0 min 81 W/m 6,4 km/h (2 Bft) 100,00 %
23.03.2019 10:00 8,7 C 8,9 C 8,9 C 88 % 1027,7 hPa 0,0 l/m 0 min 0 min 85 W/m 3,2 km/h (1 Bft) 100,00 %
23.03.2019 10:02 8,7 C 9,4 C 8,9 C 88 % 1027,8 hPa 0,0 l/m 0 min 0 min 87 W/m 6,4 km/h (2 Bft) 100,00 %
23.03.2019 10:04 8,7 C 8,9 C 8,9 C 87 % 1027,8 hPa 0,0 l/m 0 min 0 min 88 W/m 6,4 km/h (2 Bft) 97,87 %
23.03.2019 10:06 8,8 C 8,9 C 8,9 C 87 % 1027,8 hPa 0,0 l/m 0 min 0 min 90 W/m 3,2 km/h (1 Bft) 100,00 %
23.03.2019 10:08 8,8 C 8,9 C 8,9 C 87 % 1027,8 hPa 0,0 l/m 0 min 0 min 88 W/m 3,2 km/h (1 Bft) 100,00 %
23.03.2019 10:10 8,8 C 8,9 C 8,9 C 87 % 1027,8 hPa 0,0 l/m 0 min 0 min 87 W/m 6,4 km/h (2 Bft) 100,00 %
23.03.2019 10:12 8,8 C 8,9 C 8,9 C 87 % 1027,9 hPa 0,0 l/m 0 min 0 min 84 W/m 3,2 km/h (1 Bft) 100,00 %
23.03.2019 10:14 8,8 C 9,4 C 8,9 C 87 % 1027,9 hPa 0,0 l/m 0 min 0 min 83 W/m 6,4 km/h (2 Bft) 100,00 %
23.03.2019 10:16 8,8 C 9,4 C 8,9 C 87 % 1027,8 hPa 0,0 l/m 0 min 0 min 80 W/m 6,4 km/h (2 Bft) 100,00 %
23.03.2019 10:18 8,9 C 8,9 C 8,9 C 86 % 1027,9 hPa 0,0 l/m 0 min 0 min 80 W/m 9,7 km/h (2 Bft) 100,00 %
23.03.2019 10:20 8,9 C 9,4 C 8,9 C 86 % 1027,9 hPa 0,0 l/m 0 min 0 min 83 W/m 6,4 km/h (2 Bft) 100,00 %
23.03.2019 10:22 8,9 C 9,4 C 8,9 C 86 % 1027,9 hPa 0,0 l/m 0 min 0 min 84 W/m 6,4 km/h (2 Bft) 97,87 %
23.03.2019 10:24 8,9 C 8,9 C 8,9 C 86 % 1028,0 hPa 0,0 l/m 0 min 0 min 86 W/m 6,4 km/h (2 Bft) 95,65 %
23.03.2019 10:26 8,9 C 8,9 C 8,9 C 86 % 1027,9 hPa 0,0 l/m 0 min 0 min 96 W/m 6,4 km/h (2 Bft) 97,87 %
23.03.2019 10:28 9,0 C 9,4 C 8,9 C 86 % 1027,9 hPa 0,0 l/m 0 min 0 min 112 W/m 6,4 km/h (2 Bft) 97,87 %
23.03.2019 10:30 9,0 C 9,4 C 8,9 C 86 % 1027,9 hPa 0,0 l/m 0 min 0 min 138 W/m 3,2 km/h (1 Bft) 93,62 %
23.03.2019 10:32 9,0 C 9,4 C 8,9 C 86 % 1027,9 hPa 0,0 l/m 0 min 0 min 163 W/m 6,4 km/h (2 Bft) 93,62 %
23.03.2019 10:34 9,0 C 9,4 C 9,4 C 86 % 1027,9 hPa 0,0 l/m 0 min 0 min 179 W/m 3,2 km/h (1 Bft) 97,87 %
23.03.2019 10:36 9,1 C 10,0 C 9,4 C 85 % 1028,0 hPa 0,0 l/m 0 min 0 min 189 W/m 0,0 km/h (0 Bft) 97,83 %
23.03.2019 10:38 9,1 C 10,6 C 10,0 C 86 % 1027,9 hPa 0,0 l/m 0 min 0 min 203 W/m 0,0 km/h (0 Bft) 97,87 %
23.03.2019 10:40 9,1 C 10,6 C 10,0 C 86 % 1027,9 hPa 0,0 l/m 0 min 0 min 208 W/m 6,4 km/h (2 Bft) 97,87 %
23.03.2019 10:42 9,2 C 10,6 C 10,0 C 86 % 1027,9 hPa 0,0 l/m 0 min 0 min 215 W/m 6,4 km/h (2 Bft) 97,87 %
23.03.2019 10:44 9,2 C 10,6 C 10,0 C 85 % 1027,9 hPa 0,0 l/m 0 min 0 min 227 W/m 6,4 km/h (2 Bft) 95,74 %
23.03.2019 10:46 9,3 C 11,1 C 10,6 C 85 % 1028,0 hPa 0,0 l/m 0 min 0 min 221 W/m 3,2 km/h (1 Bft) 97,83 %
23.03.2019 10:48 9,3 C 11,7 C 10,6 C 85 % 1027,9 hPa 0,0 l/m 0 min 0 min 225 W/m 3,2 km/h (1 Bft) 97,87 %
23.03.2019 10:50 9,4 C 11,7 C 10,6 C 85 % 1027,9 hPa 0,0 l/m 0 min 0 min 231 W/m 3,2 km/h (1 Bft) 97,87 %
23.03.2019 10:52 9,4 C 11,7 C 11,1 C 85 % 1027,8 hPa 0,0 l/m 0 min 0 min 240 W/m 0,0 km/h (0 Bft) 97,87 %
23.03.2019 10:54 9,4 C 11,1 C 10,6 C 85 % 1027,9 hPa 0,0 l/m 0 min 0 min 231 W/m 0,0 km/h (0 Bft) 97,87 %
23.03.2019 10:56 9,5 C 11,1 C 10,6 C 84 % 1027,9 hPa 0,0 l/m 0 min 0 min 231 W/m 0,0 km/h (0 Bft) 97,87 %
23.03.2019 10:58 9,6 C 11,1 C 10,6 C 84 % 1027,9 hPa 0,0 l/m 0 min 0 min 228 W/m 6,4 km/h (2 Bft) 97,83 %
23.03.2019 11:00 9,6 C 11,1 C 10,6 C 84 % 1027,9 hPa 0,0 l/m 0 min 0 min 217 W/m 6,4 km/h (2 Bft) 97,87 %
23.03.2019 11:02 9,6 C 11,7 C 10,6 C 83 % 1028,0 hPa 0,0 l/m 0 min 0 min 207 W/m 3,2 km/h (1 Bft) 95,74 %
23.03.2019 11:04 9,7 C 11,7 C 10,6 C 83 % 1028,0 hPa 0,0 l/m 0 min 0 min 206 W/m 9,7 km/h (2 Bft) 97,87 %
23.03.2019 11:06 9,7 C 11,1 C 10,6 C 83 % 1028,0 hPa 0,0 l/m 0 min 0 min 210 W/m 6,4 km/h (2 Bft) 97,87 %
23.03.2019 11:08 9,8 C 11,7 C 10,6 C 83 % 1027,9 hPa 0,0 l/m 0 min 0 min 219 W/m 3,2 km/h (1 Bft) 97,87 %
23.03.2019 11:10 9,8 C 11,7 C 11,1 C 83 % 1028,0 hPa 0,0 l/m 0 min 0 min 228 W/m 6,4 km/h (2 Bft) 95,65 %
23.03.2019 11:12 9,9 C 12,2 C 11,1 C 83 % 1028,0 hPa 0,0 l/m 0 min 0 min 234 W/m 9,7 km/h (2 Bft) 97,87 %
23.03.2019 11:14 10,0 C 12,2 C 11,1 C 83 % 1027,9 hPa 0,0 l/m 0 min 0 min 245 W/m 6,4 km/h (2 Bft) 97,87 %
23.03.2019 11:16 10,1 C 11,7 C 11,1 C 83 % 1027,9 hPa 0,0 l/m 0 min 0 min 250 W/m 9,7 km/h (2 Bft) 100,00 %
23.03.2019 11:18 10,1 C 11,7 C 11,1 C 82 % 1028,0 hPa 0,0 l/m 0 min 0 min 250 W/m 6,4 km/h (2 Bft) 97,87 %
23.03.2019 11:20 10,2 C 12,2 C 11,7 C 82 % 1028,0 hPa 0,0 l/m 0 min 0 min 254 W/m 6,4 km/h (2 Bft) 97,87 %
23.03.2019 11:22 10,2 C 12,2 C 11,7 C 82 % 1028,0 hPa 0,0 l/m 0 min 0 min 270 W/m 9,7 km/h (2 Bft) 97,83 %
23.03.2019 11:24 10,2 C 12,2 C 11,7 C 81 % 1028,1 hPa 0,0 l/m 0 min 0 min 264 W/m 9,7 km/h (2 Bft) 100,00 %
23.03.2019 11:26 10,3 C 12,8 C 11,7 C 82 % 1028,0 hPa 0,0 l/m 0 min 0 min 249 W/m 6,4 km/h (2 Bft) 95,74 %
23.03.2019 11:28 10,4 C 12,8 C 11,7 C 82 % 1028,0 hPa 0,0 l/m 0 min 0 min 254 W/m 6,4 km/h (2 Bft) 97,87 %
23.03.2019 11:30 10,4 C 12,8 C 11,7 C 82 % 1028,0 hPa 0,0 l/m 0 min 0 min 267 W/m 12,9 km/h (3 Bft) 95,74 %
23.03.2019 11:32 10,5 C 12,8 C 11,7 C 81 % 1028,0 hPa 0,0 l/m 0 min 0 min 274 W/m 6,4 km/h (2 Bft) 95,74 %
23.03.2019 11:34 10,6 C 12,8 C 11,7 C 81 % 1028,0 hPa 0,0 l/m 0 min 0 min 287 W/m 9,7 km/h (2 Bft) 97,83 %
23.03.2019 11:36 10,6 C 13,3 C 12,2 C 81 % 1028,0 hPa 0,0 l/m 2 min 0 min 303 W/m 3,2 km/h (1 Bft) 93,62 %
23.03.2019 11:38 10,7 C 13,3 C 12,2 C 81 % 1027,9 hPa 0,0 l/m 2 min 0 min 339 W/m 9,7 km/h (2 Bft) 95,74 %
23.03.2019 11:40 10,8 C 13,3 C 12,2 C 81 % 1028,0 hPa 0,0 l/m 2 min 0 min 319 W/m 6,4 km/h (2 Bft) 95,74 %
23.03.2019 11:42 10,8 C 13,9 C 12,2 C 80 % 1028,0 hPa 0,0 l/m 2 min 0 min 359 W/m 9,7 km/h (2 Bft) 93,62 %
23.03.2019 11:44 10,9 C 13,9 C 12,8 C 80 % 1027,9 hPa 0,0 l/m 2 min 0 min 389 W/m 9,7 km/h (2 Bft) 95,74 %
23.03.2019 11:46 10,9 C 15,0 C 12,8 C 80 % 1028,0 hPa 0,0 l/m 2 min 0 min 419 W/m 12,9 km/h (3 Bft) 95,65 %
23.03.2019 11:48 11,1 C 14,4 C 12,8 C 80 % 1028,0 hPa 0,0 l/m 2 min 0 min 375 W/m 12,9 km/h (3 Bft) 95,74 %
23.03.2019 11:50 11,1 C 15,0 C 12,8 C 80 % 1028,0 hPa 0,0 l/m 2 min 0 min 405 W/m 9,7 km/h (2 Bft) 95,74 %
23.03.2019 11:52 11,2 C 15,0 C 12,8 C 79 % 1028,0 hPa 0,0 l/m 2 min 0 min 384 W/m 3,2 km/h (1 Bft) 95,74 %
23.03.2019 11:54 11,3 C 15,6 C 12,8 C 79 % 1027,9 hPa 0,0 l/m 2 min 0 min 425 W/m 9,7 km/h (2 Bft) 95,74 %
23.03.2019 11:56 11,3 C 16,1 C 13,3 C 79 % 1028,0 hPa 0,0 l/m 2 min 0 min 446 W/m 9,7 km/h (2 Bft) 95,74 %
23.03.2019 11:58 11,4 C 15,6 C 12,8 C 79 % 1028,0 hPa 0,0 l/m 2 min 0 min 400 W/m 12,9 km/h (3 Bft) 93,48 %
23.03.2019 12:00 11,4 C 15,0 C 12,8 C 78 % 1028,0 hPa 0,0 l/m 2 min 0 min 353 W/m 6,4 km/h (2 Bft) 95,74 %
23.03.2019 12:02 11,5 C 14,4 C 12,8 C 78 % 1028,0 hPa 0,0 l/m 2 min 0 min 323 W/m 9,7 km/h (2 Bft) 95,74 %
23.03.2019 12:04 11,6 C 13,3 C 12,2 C 78 % 1027,9 hPa 0,0 l/m 2 min 0 min 315 W/m 9,7 km/h (2 Bft) 93,62 %
23.03.2019 12:08 11,6 C 13,9 C 12,8 C 78 % 1028,0 hPa 0,0 l/m 4 min 0 min 321 W/m 9,7 km/h (2 Bft) 94,62 %
23.03.2019 12:10 11,7 C 13,9 C 12,8 C 78 % 1028,0 hPa 0,0 l/m 2 min 0 min 318 W/m 9,7 km/h (2 Bft) 95,74 %
23.03.2019 12:12 11,7 C 13,9 C 12,8 C 78 % 1027,9 hPa 0,0 l/m 2 min 0 min 320 W/m 6,4 km/h (2 Bft) 97,87 %
23.03.2019 12:14 11,8 C 14,4 C 12,8 C 78 % 1028,0 hPa 0,0 l/m 2 min 0 min 331 W/m 9,7 km/h (2 Bft) 97,87 %
23.03.2019 12:16 11,8 C 14,4 C 12,8 C 78 % 1028,0 hPa 0,0 l/m 0 min 0 min 310 W/m 19,3 km/h (3 Bft) 97,87 %
23.03.2019 12:18 11,9 C 14,4 C 13,3 C 78 % 1028,0 hPa 0,0 l/m 0 min 0 min 291 W/m 9,7 km/h (2 Bft) 95,74 %
23.03.2019 12:20 11,9 C 13,9 C 13,3 C 78 % 1028,0 hPa 0,0 l/m 0 min 0 min 269 W/m 12,9 km/h (3 Bft) 97,83 %
23.03.2019 12:22 11,9 C 13,9 C 12,8 C 78 % 1028,0 hPa 0,0 l/m 0 min 0 min 258 W/m 6,4 km/h (2 Bft) 97,87 %
23.03.2019 12:24 12,0 C 13,9 C 12,8 C 78 % 1028,0 hPa 0,0 l/m 0 min 0 min 248 W/m 9,7 km/h (2 Bft) 97,87 %
23.03.2019 12:26 12,0 C 13,9 C 12,8 C 78 % 1028,0 hPa 0,0 l/m 0 min 0 min 231 W/m 6,4 km/h (2 Bft) 97,87 %
23.03.2019 12:28 12,1 C 13,3 C 12,8 C 78 % 1028,1 hPa 0,0 l/m 0 min 0 min 214 W/m 6,4 km/h (2 Bft) 97,87 %
23.03.2019 12:30 12,1 C 12,8 C 12,2 C 78 % 1028,1 hPa 0,0 l/m 0 min 0 min 206 W/m 9,7 km/h (2 Bft) 97,87 %
23.03.2019 12:32 12,1 C 13,3 C 12,2 C 78 % 1028,1 hPa 0,0 l/m 0 min 0 min 201 W/m 6,4 km/h (2 Bft) 97,83 %
23.03.2019 12:34 12,1 C 12,8 C 12,2 C 78 % 1028,1 hPa 0,0 l/m 0 min 0 min 209 W/m 12,9 km/h (3 Bft) 95,74 %
23.03.2019 12:36 12,1 C 12,8 C 12,2 C 78 % 1028,1 hPa 0,0 l/m 0 min 0 min 213 W/m 16,1 km/h (3 Bft) 97,87 %
23.03.2019 12:38 12,0 C 12,8 C 12,2 C 77 % 1028,0 hPa 0,0 l/m 0 min 0 min 210 W/m 16,1 km/h (3 Bft) 97,87 %
23.03.2019 12:40 12,0 C 12,2 C 11,7 C 77 % 1028,1 hPa 0,0 l/m 0 min 0 min 204 W/m 12,9 km/h (3 Bft) 97,87 %
23.03.2019 12:42 12,0 C 12,8 C 11,7 C 77 % 1028,0 hPa 0,0 l/m 0 min 0 min 196 W/m 9,7 km/h (2 Bft) 97,87 %
23.03.2019 12:44 12,0 C 12,2 C 11,7 C 78 % 1028,1 hPa 0,0 l/m 0 min 0 min 192 W/m 6,4 km/h (2 Bft) 97,83 %
23.03.2019 12:46 11,9 C 12,2 C 11,7 C 77 % 1028,1 hPa 0,0 l/m 0 min 0 min 184 W/m 6,4 km/h (2 Bft) 97,87 %
23.03.2019 12:48 11,9 C 11,7 C 11,7 C 78 % 1028,1 hPa 0,0 l/m 0 min 0 min 169 W/m 12,9 km/h (3 Bft) 100,00 %
23.03.2019 12:50 11,9 C 11,7 C 11,7 C 78 % 1028,1 hPa 0,0 l/m 0 min 0 min 163 W/m 9,7 km/h (2 Bft) 100,00 %
23.03.2019 12:52 11,9 C 11,7 C 11,7 C 78 % 1028,1 hPa 0,0 l/m 0 min 0 min 163 W/m 6,4 km/h (2 Bft) 100,00 %
23.03.2019 12:54 11,9 C 12,2 C 11,7 C 78 % 1028,1 hPa 0,0 l/m 0 min 0 min 168 W/m 9,7 km/h (2 Bft) 100,00 %
23.03.2019 12:56 11,8 C 12,2 C 11,7 C 78 % 1028,1 hPa 0,0 l/m 0 min 0 min 183 W/m 6,4 km/h (2 Bft) 100,00 %
23.03.2019 12:58 11,8 C 12,2 C 11,7 C 79 % 1028,1 hPa 0,0 l/m 0 min 0 min 195 W/m 6,4 km/h (2 Bft) 100,00 %
23.03.2019 13:00 11,8 C 12,2 C 11,7 C 79 % 1028,1 hPa 0,0 l/m 0 min 0 min 205 W/m 6,4 km/h (2 Bft) 100,00 %
23.03.2019 13:02 11,8 C 12,2 C 11,7 C 79 % 1028,1 hPa 0,0 l/m 0 min 0 min 220 W/m 3,2 km/h (1 Bft) 93,62 %
23.03.2019 13:04 11,8 C 12,2 C 11,7 C 78 % 1028,2 hPa 0,0 l/m 0 min 0 min 230 W/m 6,4 km/h (2 Bft) 97,87 %
23.03.2019 13:06 11,8 C 12,8 C 12,2 C 78 % 1028,2 hPa 0,0 l/m 0 min 0 min 231 W/m 6,4 km/h (2 Bft) 97,87 %
23.03.2019 13:08 11,8 C 12,8 C 11,7 C 78 % 1028,2 hPa 0,0 l/m 0 min 0 min 219 W/m 12,9 km/h (3 Bft) 97,83 %
23.03.2019 13:10 11,8 C 12,8 C 11,7 C 78 % 1028,2 hPa 0,0 l/m 0 min 0 min 202 W/m 12,9 km/h (3 Bft) 97,87 %
23.03.2019 13:12 11,8 C 12,8 C 11,7 C 78 % 1028,2 hPa 0,0 l/m 0 min 0 min 209 W/m 9,7 km/h (2 Bft) 100,00 %
23.03.2019 13:14 11,8 C 12,8 C 12,2 C 78 % 1028,2 hPa 0,0 l/m 0 min 0 min 208 W/m 12,9 km/h (3 Bft) 97,87 %
23.03.2019 13:16 11,8 C 12,8 C 12,2 C 78 % 1028,2 hPa 0,0 l/m 0 min 0 min 192 W/m 9,7 km/h (2 Bft) 97,87 %
23.03.2019 13:18 11,8 C 12,8 C 12,2 C 79 % 1028,3 hPa 0,0 l/m 0 min 0 min 192 W/m 9,7 km/h (2 Bft) 97,83 %
23.03.2019 13:20 11,8 C 12,8 C 12,2 C 79 % 1028,3 hPa 0,0 l/m 0 min 0 min 180 W/m 9,7 km/h (2 Bft) 97,87 %
23.03.2019 13:22 11,8 C 12,8 C 11,7 C 79 % 1028,3 hPa 0,0 l/m 0 min 0 min 167 W/m 3,2 km/h (1 Bft) 95,74 %
23.03.2019 13:24 11,8 C 12,2 C 11,7 C 79 % 1028,3 hPa 0,0 l/m 0 min 0 min 156 W/m 12,9 km/h (3 Bft) 97,87 %
23.03.2019 13:26 11,8 C 12,2 C 11,7 C 79 % 1028,2 hPa 0,0 l/m 0 min 0 min 155 W/m 6,4 km/h (2 Bft) 97,87 %
23.03.2019 13:28 11,8 C 12,2 C 11,7 C 79 % 1028,3 hPa 0,0 l/m 0 min 0 min 157 W/m 9,7 km/h (2 Bft) 97,87 %
23.03.2019 13:30 11,8 C 11,7 C 11,7 C 78 % 1028,2 hPa 0,0 l/m 0 min 0 min 156 W/m 9,7 km/h (2 Bft) 97,83 %
23.03.2019 13:32 11,8 C 11,7 C 11,1 C 79 % 1028,2 hPa 0,0 l/m 0 min 0 min 162 W/m 6,4 km/h (2 Bft) 97,87 %
23.03.2019 13:34 11,8 C 11,7 C 11,7 C 79 % 1028,2 hPa 0,0 l/m 0 min 0 min 175 W/m 9,7 km/h (2 Bft) 95,74 %
23.03.2019 13:36 11,8 C 11,7 C 11,7 C 79 % 1028,2 hPa 0,0 l/m 0 min 0 min 174 W/m 6,4 km/h (2 Bft) 97,87 %
23.03.2019 13:38 11,7 C 11,7 C 11,1 C 79 % 1028,2 hPa 0,0 l/m 0 min 0 min 175 W/m 6,4 km/h (2 Bft) 97,87 %
23.03.2019 13:40 11,7 C 12,2 C 11,7 C 79 % 1028,2 hPa 0,0 l/m 0 min 0 min 181 W/m 6,4 km/h (2 Bft) 97,87 %
23.03.2019 13:42 11,7 C 12,2 C 11,7 C 79 % 1028,2 hPa 0,0 l/m 0 min 0 min 177 W/m 9,7 km/h (2 Bft) 97,83 %
23.03.2019 13:44 11,7 C 12,2 C 11,7 C 79 % 1028,3 hPa 0,0 l/m 0 min 0 min 174 W/m 6,4 km/h (2 Bft) 97,87 %
23.03.2019 13:46 11,7 C 12,2 C 11,7 C 79 % 1028,3 hPa 0,0 l/m 0 min 0 min 174 W/m 3,2 km/h (1 Bft) 97,87 %
23.03.2019 13:48 11,7 C 12,2 C 11,7 C 79 % 1028,3 hPa 0,0 l/m 0 min 0 min 172 W/m 6,4 km/h (2 Bft) 97,87 %
23.03.2019 13:50 11,7 C 11,7 C 11,7 C 79 % 1028,3 hPa 0,0 l/m 0 min 0 min 171 W/m 6,4 km/h (2 Bft) 100,00 %
23.03.2019 13:52 11,7 C 12,2 C 11,7 C 79 % 1028,2 hPa 0,0 l/m 0 min 0 min 168 W/m 3,2 km/h (1 Bft) 97,87 %
23.03.2019 13:54 11,7 C 12,2 C 11,7 C 79 % 1028,2 hPa 0,0 l/m 0 min 0 min 168 W/m 6,4 km/h (2 Bft) 95,65 %
23.03.2019 13:56 11,7 C 12,2 C 11,7 C 79 % 1028,1 hPa 0,0 l/m 0 min 0 min 172 W/m 6,4 km/h (2 Bft) 97,87 %
23.03.2019 13:58 11,7 C 12,2 C 11,7 C 79 % 1028,1 hPa 0,0 l/m 0 min 0 min 191 W/m 6,4 km/h (2 Bft) 97,96 %
23.03.2019 14:00 11,7 C 12,2 C 11,7 C 79 % 1028,2 hPa 0,0 l/m 0 min 0 min 209 W/m 9,7 km/h (2 Bft) 95,74 %
23.03.2019 14:02 11,7 C 12,8 C 12,2 C 79 % 1028,2 hPa 0,0 l/m 0 min 0 min 214 W/m 9,7 km/h (2 Bft) 97,87 %
23.03.2019 14:04 11,7 C 12,8 C 12,2 C 80 % 1028,2 hPa 0,0 l/m 0 min 0 min 212 W/m 9,7 km/h (2 Bft) 95,74 %
23.03.2019 14:06 11,7 C 12,8 C 12,2 C 80 % 1028,2 hPa 0,0 l/m 0 min 0 min 204 W/m 6,4 km/h (2 Bft) 97,83 %
23.03.2019 14:08 11,7 C 12,8 C 12,2 C 80 % 1028,3 hPa 0,0 l/m 0 min 0 min 199 W/m 9,7 km/h (2 Bft) 95,74 %
23.03.2019 14:10 11,7 C 12,8 C 12,2 C 80 % 1028,3 hPa 0,0 l/m 0 min 0 min 194 W/m 6,4 km/h (2 Bft) 97,87 %
23.03.2019 14:12 11,7 C 12,8 C 12,2 C 80 % 1028,3 hPa 0,0 l/m 0 min 0 min 189 W/m 6,4 km/h (2 Bft) 93,62 %
23.03.2019 14:14 11,8 C 12,8 C 11,7 C 80 % 1028,2 hPa 0,0 l/m 0 min 0 min 185 W/m 3,2 km/h (1 Bft) 97,87 %
23.03.2019 14:16 11,8 C 12,8 C 11,7 C 80 % 1028,2 hPa 0,0 l/m 0 min 0 min 185 W/m 6,4 km/h (2 Bft) 95,65 %
23.03.2019 14:18 11,8 C 12,2 C 11,7 C 79 % 1028,2 hPa 0,0 l/m 0 min 0 min 189 W/m 6,4 km/h (2 Bft) 97,87 %
23.03.2019 14:20 11,8 C 12,2 C 11,7 C 80 % 1028,4 hPa 0,0 l/m 0 min 0 min 188 W/m 12,9 km/h (3 Bft) 97,87 %
23.03.2019 14:22 11,8 C 12,8 C 12,2 C 80 % 1028,3 hPa 0,0 l/m 0 min 0 min 182 W/m 6,4 km/h (2 Bft) 97,87 %
23.03.2019 14:24 11,8 C 12,8 C 11,7 C 80 % 1028,3 hPa 0,0 l/m 0 min 0 min 178 W/m 6,4 km/h (2 Bft) 97,87 %
23.03.2019 14:26 11,8 C 12,2 C 11,7 C 80 % 1028,2 hPa 0,0 l/m 0 min 0 min 179 W/m 6,4 km/h (2 Bft) 97,87 %
23.03.2019 14:28 11,8 C 12,2 C 11,7 C 80 % 1028,2 hPa 0,0 l/m 0 min 0 min 181 W/m 6,4 km/h (2 Bft) 97,83 %
23.03.2019 14:30 11,9 C 12,8 C 12,2 C 80 % 1028,1 hPa 0,0 l/m 0 min 0 min 180 W/m 9,7 km/h (2 Bft) 95,74 %
23.03.2019 14:32 11,9 C 12,2 C 12,2 C 80 % 1028,2 hPa 0,0 l/m 0 min 0 min 177 W/m 6,4 km/h (2 Bft) 97,87 %
23.03.2019 14:34 11,9 C 12,8 C 12,2 C 80 % 1028,3 hPa 0,0 l/m 0 min 0 min 170 W/m 6,4 km/h (2 Bft) 97,87 %
23.03.2019 14:36 11,9 C 12,8 C 12,2 C 80 % 1028,2 hPa 0,0 l/m 0 min 0 min 163 W/m 16,1 km/h (3 Bft) 100,00 %
23.03.2019 14:38 11,9 C 12,2 C 12,2 C 80 % 1028,2 hPa 0,0 l/m 0 min 0 min 162 W/m 3,2 km/h (1 Bft) 100,00 %
23.03.2019 14:40 11,9 C 12,2 C 11,7 C 80 % 1028,2 hPa 0,0 l/m 0 min 0 min 162 W/m 6,4 km/h (2 Bft) 100,00 %
23.03.2019 14:42 11,9 C 12,2 C 11,7 C 80 % 1028,2 hPa 0,0 l/m 0 min 0 min 157 W/m 6,4 km/h (2 Bft) 95,74 %
23.03.2019 14:44 11,9 C 12,2 C 11,7 C 80 % 1028,2 hPa 0,0 l/m 0 min 0 min 156 W/m 6,4 km/h (2 Bft) 100,00 %
23.03.2019 14:46 11,9 C 12,2 C 11,7 C 80 % 1028,2 hPa 0,0 l/m 0 min 0 min 154 W/m 9,7 km/h (2 Bft) 97,87 %
23.03.2019 14:48 11,9 C 12,2 C 11,7 C 80 % 1028,3 hPa 0,0 l/m 0 min 0 min 150 W/m 12,9 km/h (3 Bft) 100,00 %
23.03.2019 14:50 11,9 C 12,2 C 11,7 C 80 % 1028,2 hPa 0,0 l/m 0 min 0 min 148 W/m 12,9 km/h (3 Bft) 100,00 %
23.03.2019 14:52 11,9 C 12,2 C 11,7 C 80 % 1028,2 hPa 0,0 l/m 0 min 0 min 148 W/m 9,7 km/h (2 Bft) 97,83 %
23.03.2019 14:54 11,9 C 12,8 C 11,7 C 80 % 1028,2 hPa 0,0 l/m 0 min 0 min 148 W/m 6,4 km/h (2 Bft) 100,00 %
23.03.2019 14:56 11,9 C 12,8 C 11,7 C 80 % 1028,1 hPa 0,0 l/m 0 min 0 min 147 W/m 6,4 km/h (2 Bft) 100,00 %
23.03.2019 14:58 11,9 C 12,8 C 11,7 C 81 % 1028,1 hPa 0,0 l/m 0 min 0 min 142 W/m 9,7 km/h (2 Bft) 100,00 %
23.03.2019 15:00 11,9 C 12,2 C 11,7 C 81 % 1028,1 hPa 0,0 l/m 0 min 0 min 139 W/m 6,4 km/h (2 Bft) 100,00 %
23.03.2019 15:02 12,0 C 12,2 C 11,7 C 81 % 1028,1 hPa 0,0 l/m 0 min 0 min 144 W/m 9,7 km/h (2 Bft) 97,87 %
23.03.2019 15:04 11,9 C 12,2 C 11,7 C 81 % 1028,1 hPa 0,0 l/m 0 min 0 min 147 W/m 9,7 km/h (2 Bft) 100,00 %
23.03.2019 15:06 11,9 C 12,2 C 11,7 C 80 % 1028,1 hPa 0,0 l/m 0 min 0 min 148 W/m 6,4 km/h (2 Bft) 100,00 %
23.03.2019 15:08 11,9 C 12,2 C 11,7 C 80 % 1028,1 hPa 0,0 l/m 0 min 0 min 143 W/m 3,2 km/h (1 Bft) 97,87 %
23.03.2019 15:10 11,9 C 12,2 C 11,7 C 80 % 1028,1 hPa 0,0 l/m 0 min 0 min 137 W/m 9,7 km/h (2 Bft) 100,00 %
23.03.2019 15:12 11,9 C 12,2 C 11,7 C 81 % 1028,1 hPa 0,0 l/m 0 min 0 min 133 W/m 9,7 km/h (2 Bft) 100,00 %
23.03.2019 15:14 11,9 C 12,2 C 11,7 C 81 % 1028,1 hPa 0,0 l/m 0 min 0 min 134 W/m 12,9 km/h (3 Bft) 97,87 %
23.03.2019 15:16 11,9 C 11,7 C 11,7 C 80 % 1028,1 hPa 0,0 l/m 0 min 0 min 136 W/m 6,4 km/h (2 Bft) 100,00 %
23.03.2019 15:18 11,9 C 11,7 C 11,7 C 80 % 1028,1 hPa 0,0 l/m 0 min 0 min 139 W/m 6,4 km/h (2 Bft) 97,87 %
23.03.2019 15:20 11,9 C 12,2 C 11,7 C 81 % 1028,1 hPa 0,0 l/m 0 min 0 min 135 W/m 6,4 km/h (2 Bft) 95,74 %
23.03.2019 15:22 11,9 C 12,2 C 11,7 C 81 % 1028,1 hPa 0,0 l/m 0 min 0 min 134 W/m 9,7 km/h (2 Bft) 97,87 %
23.03.2019 15:24 11,9 C 12,2 C 11,7 C 81 % 1028,0 hPa 0,0 l/m 0 min 0 min 131 W/m 6,4 km/h (2 Bft) 95,74 %
23.03.2019 15:26 11,9 C 12,2 C 11,7 C 81 % 1028,1 hPa 0,0 l/m 0 min 0 min 130 W/m 6,4 km/h (2 Bft) 100,00 %
23.03.2019 15:28 11,9 C 12,2 C 11,7 C 81 % 1028,1 hPa 0,0 l/m 0 min 0 min 126 W/m 6,4 km/h (2 Bft) 97,87 %
23.03.2019 15:30 11,9 C 12,2 C 11,7 C 81 % 1028,1 hPa 0,0 l/m 0 min 0 min 120 W/m 3,2 km/h (1 Bft) 97,87 %
23.03.2019 15:32 11,9 C 12,2 C 11,7 C 81 % 1028,1 hPa 0,0 l/m 0 min 0 min 116 W/m 6,4 km/h (2 Bft) 97,87 %
23.03.2019 15:34 11,9 C 12,2 C 11,7 C 81 % 1028,1 hPa 0,0 l/m 0 min 0 min 112 W/m 9,7 km/h (2 Bft) 100,00 %
23.03.2019 15:36 11,9 C 12,2 C 11,7 C 81 % 1028,1 hPa 0,0 l/m 0 min 0 min 107 W/m 6,4 km/h (2 Bft) 100,00 %
23.03.2019 15:38 11,9 C 12,2 C 11,7 C 81 % 1028,1 hPa 0,0 l/m 0 min 0 min 103 W/m 6,4 km/h (2 Bft) 97,83 %
23.03.2019 15:40 11,9 C 11,7 C 11,1 C 81 % 1028,1 hPa 0,0 l/m 0 min 0 min 98 W/m 6,4 km/h (2 Bft) 97,87 %
23.03.2019 15:42 11,9 C 11,7 C 11,1 C 81 % 1028,1 hPa 0,0 l/m 0 min 0 min 93 W/m 6,4 km/h (2 Bft) 97,87 %
23.03.2019 15:44 11,9 C 11,7 C 11,1 C 81 % 1028,1 hPa 0,0 l/m 0 min 0 min 91 W/m 6,4 km/h (2 Bft) 97,87 %
23.03.2019 15:46 11,8 C 11,7 C 11,1 C 81 % 1028,2 hPa 0,0 l/m 0 min 0 min 84 W/m 9,7 km/h (2 Bft) 97,87 %
23.03.2019 15:48 11,8 C 11,7 C 11,1 C 81 % 1028,2 hPa 0,0 l/m 0 min 0 min 80 W/m 6,4 km/h (2 Bft) 97,87 %
23.03.2019 15:50 11,8 C 11,7 C 11,1 C 81 % 1028,2 hPa 0,0 l/m 0 min 0 min 79 W/m 9,7 km/h (2 Bft) 95,65 %
23.03.2019 15:52 11,8 C 11,7 C 11,1 C 81 % 1028,1 hPa 0,0 l/m 0 min 0 min 79 W/m 3,2 km/h (1 Bft) 93,62 %
23.03.2019 15:54 11,8 C 11,7 C 11,1 C 81 % 1028,2 hPa 0,0 l/m 0 min 0 min 79 W/m 6,4 km/h (2 Bft) 97,87 %
23.03.2019 15:56 11,8 C 11,7 C 11,1 C 81 % 1028,2 hPa 0,0 l/m 0 min 0 min 78 W/m 9,7 km/h (2 Bft) 97,87 %
23.03.2019 15:58 11,8 C 11,7 C 11,1 C 81 % 1028,2 hPa 0,0 l/m 0 min 0 min 76 W/m 6,4 km/h (2 Bft) 95,74 %
23.03.2019 16:00 11,8 C 11,7 C 11,1 C 81 % 1028,2 hPa 0,0 l/m 0 min 0 min 76 W/m 6,4 km/h (2 Bft) 95,74 %
23.03.2019 16:02 11,7 C 11,7 C 11,1 C 81 % 1028,2 hPa 0,0 l/m 0 min 0 min 76 W/m 9,7 km/h (2 Bft) 93,48 %
23.03.2019 16:04 11,7 C 11,1 C 11,1 C 82 % 1028,2 hPa 0,0 l/m 0 min 0 min 77 W/m 6,4 km/h (2 Bft) 95,74 %
23.03.2019 16:06 11,7 C 11,7 C 11,1 C 82 % 1028,1 hPa 0,0 l/m 0 min 0 min 81 W/m 6,4 km/h (2 Bft) 95,74 %
23.03.2019 16:08 11,7 C 11,7 C 11,1 C 82 % 1028,2 hPa 0,0 l/m 0 min 0 min 81 W/m 3,2 km/h (1 Bft) 95,74 %
23.03.2019 16:10 11,7 C 11,7 C 11,1 C 82 % 1028,2 hPa 0,0 l/m 0 min 0 min 80 W/m 6,4 km/h (2 Bft) 97,87 %
23.03.2019 16:12 11,7 C 11,7 C 11,1 C 82 % 1028,2 hPa 0,0 l/m 0 min 0 min 81 W/m 6,4 km/h (2 Bft) 95,74 %
23.03.2019 16:14 11,7 C 11,1 C 11,1 C 82 % 1028,2 hPa 0,0 l/m 0 min 0 min 78 W/m 3,2 km/h (1 Bft) 97,83 %
23.03.2019 16:16 11,7 C 11,7 C 11,1 C 82 % 1028,2 hPa 0,0 l/m 0 min 0 min 77 W/m 6,4 km/h (2 Bft) 95,74 %
23.03.2019 16:18 11,7 C 11,7 C 11,1 C 82 % 1028,3 hPa 0,0 l/m 0 min 0 min 76 W/m 9,7 km/h (2 Bft) 95,74 %
23.03.2019 16:20 11,7 C 11,7 C 11,1 C 82 % 1028,2 hPa 0,0 l/m 0 min 0 min 76 W/m 6,4 km/h (2 Bft) 95,74 %
23.03.2019 16:22 11,7 C 11,7 C 11,1 C 82 % 1028,2 hPa 0,0 l/m 0 min 0 min 77 W/m 6,4 km/h (2 Bft) 91,49 %
23.03.2019 16:24 11,7 C 11,7 C 11,1 C 82 % 1028,2 hPa 0,0 l/m 0 min 0 min 78 W/m 6,4 km/h (2 Bft) 93,62 %
23.03.2019 16:26 11,6 C 11,1 C 11,1 C 82 % 1028,2 hPa 0,0 l/m 0 min 0 min 81 W/m 3,2 km/h (1 Bft) 93,48 %
23.03.2019 16:28 11,6 C 11,7 C 11,1 C 82 % 1028,1 hPa 0,0 l/m 0 min 0 min 81 W/m 3,2 km/h (1 Bft) 91,49 %
23.03.2019 16:30 11,6 C 11,7 C 11,1 C 82 % 1028,1 hPa 0,0 l/m 0 min 0 min 84 W/m 9,7 km/h (2 Bft) 93,62 %
23.03.2019 16:32 11,6 C 11,7 C 11,1 C 82 % 1028,0 hPa 0,0 l/m 0 min 0 min 89 W/m 6,4 km/h (2 Bft) 93,62 %
23.03.2019 16:34 11,6 C 11,7 C 11,1 C 82 % 1028,1 hPa 0,0 l/m 0 min 0 min 90 W/m 3,2 km/h (1 Bft) 93,62 %
23.03.2019 16:36 11,6 C 11,7 C 11,1 C 83 % 1028,1 hPa 0,0 l/m 0 min 0 min 88 W/m 6,4 km/h (2 Bft) 91,49 %
23.03.2019 16:38 11,6 C 11,7 C 11,1 C 83 % 1028,1 hPa 0,0 l/m 0 min 0 min 88 W/m 6,4 km/h (2 Bft) 93,48 %
23.03.2019 16:40 11,6 C 11,7 C 11,1 C 83 % 1028,1 hPa 0,0 l/m 0 min 0 min 86 W/m 6,4 km/h (2 Bft) 95,74 %
23.03.2019 16:42 11,6 C 11,7 C 11,1 C 83 % 1028,1 hPa 0,0 l/m 0 min 0 min 84 W/m 6,4 km/h (2 Bft) 95,74 %
23.03.2019 16:44 11,6 C 11,7 C 11,1 C 83 % 1028,1 hPa 0,0 l/m 0 min 0 min 84 W/m 9,7 km/h (2 Bft) 95,74 %
23.03.2019 16:46 11,6 C 11,7 C 11,1 C 83 % 1028,1 hPa 0,0 l/m 0 min 0 min 83 W/m 9,7 km/h (2 Bft) 95,74 %
23.03.2019 16:48 11,6 C 11,7 C 11,1 C 83 % 1028,0 hPa 0,0 l/m 0 min 0 min 80 W/m 9,7 km/h (2 Bft) 95,74 %
23.03.2019 16:50 11,6 C 11,7 C 11,1 C 83 % 1028,0 hPa 0,0 l/m 0 min 0 min 74 W/m 3,2 km/h (1 Bft) 95,65 %
23.03.2019 16:52 11,6 C 11,7 C 11,1 C 83 % 1028,1 hPa 0,0 l/m 0 min 0 min 70 W/m 6,4 km/h (2 Bft) 95,74 %
23.03.2019 16:54 11,6 C 11,7 C 11,1 C 83 % 1028,1 hPa 0,0 l/m 0 min 0 min 65 W/m 6,4 km/h (2 Bft) 97,87 %
23.03.2019 16:56 11,6 C 11,7 C 11,1 C 83 % 1028,0 hPa 0,0 l/m 0 min 0 min 58 W/m 6,4 km/h (2 Bft) 97,87 %
23.03.2019 16:58 11,6 C 11,1 C 11,1 C 83 % 1028,1 hPa 0,0 l/m 0 min 0 min 53 W/m 6,4 km/h (2 Bft) 97,87 %
23.03.2019 17:00 11,6 C 11,1 C 11,1 C 83 % 1028,1 hPa 0,0 l/m 0 min 0 min 54 W/m 6,4 km/h (2 Bft) 95,65 %
23.03.2019 17:02 11,6 C 11,1 C 10,6 C 83 % 1028,1 hPa 0,0 l/m 0 min 0 min 53 W/m 6,4 km/h (2 Bft) 97,87 %
23.03.2019 17:04 11,6 C 11,1 C 10,6 C 83 % 1028,1 hPa 0,0 l/m 0 min 0 min 52 W/m 3,2 km/h (1 Bft) 97,87 %
23.03.2019 17:06 11,6 C 11,1 C 10,6 C 84 % 1028,0 hPa 0,0 l/m 0 min 0 min 48 W/m 6,4 km/h (2 Bft) 97,87 %
23.03.2019 17:08 11,6 C 11,1 C 10,6 C 84 % 1028,1 hPa 0,0 l/m 0 min 0 min 47 W/m 16,1 km/h (3 Bft) 100,00 %
23.03.2019 17:10 11,6 C 11,1 C 10,6 C 84 % 1028,1 hPa 0,0 l/m 0 min 0 min 47 W/m 9,7 km/h (2 Bft) 95,74 %
23.03.2019 17:12 11,6 C 11,1 C 10,6 C 83 % 1028,1 hPa 0,0 l/m 0 min 0 min 43 W/m 6,4 km/h (2 Bft) 100,00 %
23.03.2019 17:14 11,5 C 11,1 C 10,6 C 83 % 1028,1 hPa 0,0 l/m 0 min 0 min 39 W/m 6,4 km/h (2 Bft) 95,74 %
23.03.2019 17:16 11,5 C 11,1 C 10,6 C 84 % 1028,1 hPa 0,0 l/m 0 min 0 min 36 W/m 6,4 km/h (2 Bft) 100,00 %
23.03.2019 17:18 11,5 C 11,1 C 10,6 C 84 % 1028,1 hPa 0,0 l/m 0 min 0 min 35 W/m 6,4 km/h (2 Bft) 100,00 %
23.03.2019 17:20 11,5 C 11,1 C 10,6 C 84 % 1028,0 hPa 0,0 l/m 0 min 0 min 38 W/m 6,4 km/h (2 Bft) 100,00 %
23.03.2019 17:22 11,5 C 11,1 C 10,6 C 84 % 1028,1 hPa 0,0 l/m 0 min 0 min 39 W/m 9,7 km/h (2 Bft) 100,00 %
23.03.2019 17:24 11,5 C 11,1 C 10,6 C 84 % 1028,0 hPa 0,0 l/m 0 min 0 min 39 W/m 16,1 km/h (3 Bft) 97,83 %
23.03.2019 17:26 11,4 C 11,1 C 10,6 C 84 % 1028,0 hPa 0,0 l/m 0 min 0 min 39 W/m 9,7 km/h (2 Bft) 100,00 %
23.03.2019 17:28 11,4 C 11,1 C 10,6 C 84 % 1028,0 hPa 0,0 l/m 0 min 0 min 37 W/m 9,7 km/h (2 Bft) 100,00 %
23.03.2019 17:30 11,4 C 10,6 C 10,6 C 84 % 1028,0 hPa 0,0 l/m 0 min 0 min 36 W/m 9,7 km/h (2 Bft) 100,00 %
23.03.2019 17:32 11,4 C 10,6 C 10,6 C 84 % 1028,0 hPa 0,0 l/m 0 min 0 min 34 W/m 9,7 km/h (2 Bft) 97,87 %
23.03.2019 17:34 11,4 C 10,6 C 10,6 C 84 % 1028,0 hPa 0,0 l/m 0 min 0 min 32 W/m 6,4 km/h (2 Bft) 100,00 %
23.03.2019 17:36 11,4 C 10,6 C 10,6 C 84 % 1028,0 hPa 0,0 l/m 0 min 0 min 30 W/m 12,9 km/h (3 Bft) 100,00 %
23.03.2019 17:38 11,4 C 10,6 C 10,6 C 84 % 1028,0 hPa 0,0 l/m 0 min 0 min 30 W/m 12,9 km/h (3 Bft) 100,00 %
23.03.2019 17:40 11,4 C 10,6 C 10,6 C 84 % 1028,0 hPa 0,0 l/m 0 min 0 min 30 W/m 9,7 km/h (2 Bft) 100,00 %
23.03.2019 17:42 11,3 C 10,6 C 10,6 C 84 % 1028,0 hPa 0,0 l/m 0 min 0 min 30 W/m 16,1 km/h (3 Bft) 100,00 %
23.03.2019 17:44 11,3 C 10,6 C 10,0 C 84 % 1028,0 hPa 0,0 l/m 0 min 0 min 27 W/m 9,7 km/h (2 Bft) 100,00 %
23.03.2019 17:46 11,3 C 10,6 C 10,0 C 84 % 1028,0 hPa 0,0 l/m 0 min 0 min 25 W/m 9,7 km/h (2 Bft) 100,00 %
23.03.2019 17:48 11,3 C 10,6 C 10,0 C 84 % 1028,0 hPa 0,0 l/m 0 min 0 min 23 W/m 9,7 km/h (2 Bft) 100,00 %
23.03.2019 17:50 11,3 C 10,6 C 10,0 C 84 % 1028,0 hPa 0,0 l/m 0 min 0 min 21 W/m 9,7 km/h (2 Bft) 100,00 %
23.03.2019 17:52 11,3 C 10,6 C 10,0 C 84 % 1028,0 hPa 0,0 l/m 0 min 0 min 18 W/m 9,7 km/h (2 Bft) 100,00 %
23.03.2019 17:54 11,3 C 10,6 C 10,0 C 84 % 1028,0 hPa 0,0 l/m 0 min 0 min 20 W/m 6,4 km/h (2 Bft) 100,00 %
23.03.2019 17:56 11,3 C 10,6 C 10,0 C 85 % 1028,0 hPa 0,0 l/m 0 min 0 min 22 W/m 6,4 km/h (2 Bft) 100,00 %
23.03.2019 17:58 11,3 C 10,6 C 10,0 C 85 % 1027,9 hPa 0,0 l/m 0 min 0 min 23 W/m 6,4 km/h (2 Bft) 100,00 %
23.03.2019 18:00 11,2 C 10,6 C 10,0 C 85 % 1027,9 hPa 0,0 l/m 0 min 0 min 23 W/m 3,2 km/h (1 Bft) 100,00 %
23.03.2019 18:02 11,2 C 10,6 C 10,0 C 84 % 1027,9 hPa 0,0 l/m 0 min 0 min 21 W/m 3,2 km/h (1 Bft) 100,00 %
23.03.2019 18:04 11,2 C 10,6 C 10,0 C 85 % 1027,9 hPa 0,0 l/m 0 min 0 min 19 W/m 6,4 km/h (2 Bft) 100,00 %
23.03.2019 18:08 11,2 C 10,6 C 10,0 C 85 % 1027,9 hPa 0,0 l/m 0 min 0 min 18 W/m 9,7 km/h (2 Bft) 98,94 %
23.03.2019 18:10 11,2 C 10,6 C 10,0 C 85 % 1027,8 hPa 0,0 l/m 0 min 0 min 16 W/m 6,4 km/h (2 Bft) 100,00 %
23.03.2019 18:12 11,2 C 10,6 C 10,0 C 85 % 1027,8 hPa 0,0 l/m 0 min 0 min 15 W/m 6,4 km/h (2 Bft) 100,00 %
23.03.2019 18:14 11,2 C 10,6 C 10,0 C 85 % 1027,8 hPa 0,0 l/m 0 min 0 min 16 W/m 6,4 km/h (2 Bft) 100,00 %
23.03.2019 18:16 11,2 C 10,6 C 10,0 C 85 % 1027,7 hPa 0,0 l/m 0 min 0 min 16 W/m 6,4 km/h (2 Bft) 100,00 %
23.03.2019 18:18 11,2 C 10,6 C 10,0 C 85 % 1027,7 hPa 0,0 l/m 0 min 0 min 14 W/m 6,4 km/h (2 Bft) 100,00 %
23.03.2019 18:20 11,2 C 10,6 C 10,0 C 85 % 1027,7 hPa 0,0 l/m 0 min 0 min 13 W/m 9,7 km/h (2 Bft) 100,00 %
23.03.2019 18:22 11,1 C 10,6 C 10,0 C 85 % 1027,8 hPa 0,0 l/m 0 min 0 min 12 W/m 6,4 km/h (2 Bft) 93,48 %
23.03.2019 18:24 11,1 C 10,0 C 10,0 C 85 % 1027,8 hPa 0,0 l/m 0 min 0 min 11 W/m 6,4 km/h (2 Bft) 100,00 %
23.03.2019 18:26 11,1 C 10,0 C 10,0 C 85 % 1027,8 hPa 0,0 l/m 0 min 0 min 9 W/m 9,7 km/h (2 Bft) 100,00 %
23.03.2019 18:28 11,1 C 10,0 C 10,0 C 85 % 1027,8 hPa 0,0 l/m 0 min 0 min 7 W/m 9,7 km/h (2 Bft) 100,00 %
23.03.2019 18:30 11,1 C 10,0 C 10,0 C 85 % 1027,9 hPa 0,0 l/m 0 min 0 min 7 W/m 6,4 km/h (2 Bft) 95,74 %
23.03.2019 18:32 11,1 C 10,0 C 10,0 C 85 % 1027,9 hPa 0,0 l/m 0 min 0 min 6 W/m 6,4 km/h (2 Bft) 97,87 %
23.03.2019 18:34 11,1 C 10,0 C 10,0 C 85 % 1027,9 hPa 0,0 l/m 0 min 0 min 5 W/m 6,4 km/h (2 Bft) 100,00 %
23.03.2019 18:36 11,1 C 10,0 C 10,0 C 85 % 1027,9 hPa 0,0 l/m 0 min 0 min 4 W/m 9,7 km/h (2 Bft) 97,87 %
23.03.2019 18:38 11,0 C 10,0 C 10,0 C 86 % 1027,9 hPa 0,0 l/m 0 min 0 min 0 W/m 6,4 km/h (2 Bft) 97,87 %
23.03.2019 18:40 11,0 C 10,0 C 10,0 C 86 % 1027,9 hPa 0,0 l/m 0 min 0 min 0 W/m 9,7 km/h (2 Bft) 100,00 %
23.03.2019 18:42 11,0 C 10,0 C 10,0 C 86 % 1027,9 hPa 0,0 l/m 0 min 0 min 0 W/m 6,4 km/h (2 Bft) 100,00 %
23.03.2019 18:44 11,0 C 10,0 C 9,4 C 86 % 1027,9 hPa 0,0 l/m 0 min 0 min 0 W/m 6,4 km/h (2 Bft) 97,87 %
23.03.2019 18:46 11,0 C 10,0 C 9,4 C 86 % 1027,9 hPa 0,0 l/m 0 min 0 min 0 W/m 6,4 km/h (2 Bft) 100,00 %
23.03.2019 18:48 10,9 C 10,0 C 9,4 C 86 % 1027,9 hPa 0,0 l/m 0 min 0 min 0 W/m 9,7 km/h (2 Bft) 95,74 %
23.03.2019 18:50 10,9 C 10,0 C 9,4 C 86 % 1028,0 hPa 0,0 l/m 0 min 0 min 0 W/m 12,9 km/h (3 Bft) 95,74 %
23.03.2019 18:52 10,9 C 10,0 C 9,4 C 86 % 1028,0 hPa 0,0 l/m 0 min 0 min 0 W/m 12,9 km/h (3 Bft) 97,87 %
23.03.2019 18:54 10,9 C 10,0 C 9,4 C 86 % 1028,0 hPa 0,0 l/m 0 min 0 min 0 W/m 9,7 km/h (2 Bft) 97,87 %
23.03.2019 18:56 10,9 C 10,0 C 9,4 C 86 % 1028,0 hPa 0,0 l/m 0 min 0 min 0 W/m 9,7 km/h (2 Bft) 97,87 %
23.03.2019 18:58 10,9 C 10,0 C 9,4 C 86 % 1028,0 hPa 0,0 l/m 0 min 0 min 0 W/m 12,9 km/h (3 Bft) 97,83 %
23.03.2019 19:00 10,9 C 10,0 C 9,4 C 86 % 1028,0 hPa 0,0 l/m 0 min 0 min 0 W/m 12,9 km/h (3 Bft) 97,87 %
23.03.2019 19:02 10,9 C 10,0 C 9,4 C 87 % 1028,0 hPa 0,0 l/m 0 min 0 min 0 W/m 12,9 km/h (3 Bft) 97,87 %
23.03.2019 19:04 10,9 C 10,0 C 9,4 C 87 % 1028,0 hPa 0,0 l/m 0 min 0 min 0 W/m 12,9 km/h (3 Bft) 97,87 %
23.03.2019 19:06 10,8 C 10,0 C 9,4 C 87 % 1028,0 hPa 0,0 l/m 0 min 0 min 0 W/m 12,9 km/h (3 Bft) 97,87 %
23.03.2019 19:08 10,8 C 10,0 C 9,4 C 87 % 1028,0 hPa 0,0 l/m 0 min 0 min 0 W/m 9,7 km/h (2 Bft) 95,74 %
23.03.2019 19:10 10,8 C 10,0 C 9,4 C 87 % 1028,0 hPa 0,0 l/m 0 min 0 min 0 W/m 12,9 km/h (3 Bft) 95,65 %
23.03.2019 19:12 10,8 C 10,0 C 9,4 C 87 % 1028,1 hPa 0,0 l/m 0 min 0 min 0 W/m 9,7 km/h (2 Bft) 93,62 %
23.03.2019 19:14 10,8 C 10,0 C 9,4 C 87 % 1028,2 hPa 0,0 l/m 0 min 0 min 0 W/m 12,9 km/h (3 Bft) 93,62 %
23.03.2019 19:16 10,8 C 9,4 C 9,4 C 88 % 1028,1 hPa 0,0 l/m 0 min 0 min 0 W/m 16,1 km/h (3 Bft) 97,87 %
23.03.2019 19:18 10,8 C 9,4 C 9,4 C 88 % 1028,1 hPa 0,0 l/m 0 min 0 min 0 W/m 9,7 km/h (2 Bft) 95,74 %
23.03.2019 19:20 10,8 C 9,4 C 9,4 C 88 % 1028,2 hPa 0,0 l/m 0 min 0 min 0 W/m 9,7 km/h (2 Bft) 95,74 %
23.03.2019 19:22 10,8 C 9,4 C 9,4 C 88 % 1028,1 hPa 0,0 l/m 0 min 0 min 0 W/m 6,4 km/h (2 Bft) 93,48 %
23.03.2019 19:24 10,7 C 9,4 C 9,4 C 88 % 1028,1 hPa 0,0 l/m 0 min 0 min 0 W/m 9,7 km/h (2 Bft) 95,74 %
23.03.2019 19:26 10,7 C 9,4 C 9,4 C 88 % 1028,1 hPa 0,0 l/m 0 min 0 min 0 W/m 9,7 km/h (2 Bft) 93,62 %
23.03.2019 19:28 10,7 C 9,4 C 8,9 C 88 % 1028,1 hPa 0,0 l/m 0 min 0 min 0 W/m 6,4 km/h (2 Bft) 91,49 %
23.03.2019 19:30 10,7 C 9,4 C 8,9 C 88 % 1028,0 hPa 0,0 l/m 0 min 0 min 0 W/m 9,7 km/h (2 Bft) 93,62 %
23.03.2019 19:32 10,7 C 9,4 C 8,9 C 88 % 1028,1 hPa 0,0 l/m 0 min 0 min 0 W/m 6,4 km/h (2 Bft) 93,48 %
23.03.2019 19:34 10,7 C 9,4 C 8,9 C 88 % 1028,1 hPa 0,0 l/m 0 min 0 min 0 W/m 9,7 km/h (2 Bft) 93,62 %
23.03.2019 19:36 10,7 C 9,4 C 8,9 C 89 % 1028,2 hPa 0,0 l/m 0 min 0 min 0 W/m 9,7 km/h (2 Bft) 95,74 %
23.03.2019 19:38 10,6 C 9,4 C 8,9 C 89 % 1028,3 hPa 0,0 l/m 0 min 0 min 0 W/m 9,7 km/h (2 Bft) 95,74 %
23.03.2019 19:40 10,6 C 9,4 C 8,9 C 89 % 1028,2 hPa 0,0 l/m 0 min 0 min 0 W/m 3,2 km/h (1 Bft) 95,74 %
23.03.2019 19:42 10,6 C 9,4 C 8,9 C 89 % 1028,2 hPa 0,0 l/m 0 min 0 min 0 W/m 9,7 km/h (2 Bft) 95,74 %
23.03.2019 19:44 10,6 C 9,4 C 8,9 C 89 % 1028,2 hPa 0,0 l/m 0 min 0 min 0 W/m 6,4 km/h (2 Bft) 91,30 %
23.03.2019 19:46 10,6 C 9,4 C 8,9 C 89 % 1028,2 hPa 0,0 l/m 0 min 0 min 0 W/m 6,4 km/h (2 Bft) 93,62 %
23.03.2019 19:48 10,6 C 9,4 C 8,9 C 90 % 1028,2 hPa 0,0 l/m 0 min 0 min 0 W/m 6,4 km/h (2 Bft) 95,74 %
23.03.2019 19:50 10,6 C 9,4 C 8,9 C 90 % 1028,2 hPa 0,0 l/m 0 min 0 min 0 W/m 9,7 km/h (2 Bft) 95,74 %
23.03.2019 19:52 10,5 C 9,4 C 8,9 C 90 % 1028,2 hPa 0,0 l/m 0 min 0 min 0 W/m 3,2 km/h (1 Bft) 95,74 %
23.03.2019 19:54 10,5 C 9,4 C 8,9 C 90 % 1028,3 hPa 0,0 l/m 0 min 0 min 0 W/m 6,4 km/h (2 Bft) 95,74 %
23.03.2019 19:56 10,4 C 9,4 C 8,9 C 90 % 1028,3 hPa 0,0 l/m 0 min 0 min 0 W/m 6,4 km/h (2 Bft) 95,65 %
23.03.2019 19:58 10,4 C 8,9 C 8,9 C 90 % 1028,3 hPa 0,0 l/m 0 min 0 min 0 W/m 9,7 km/h (2 Bft) 95,74 %
23.03.2019 20:00 10,4 C 8,9 C 8,9 C 91 % 1028,3 hPa 0,0 l/m 0 min 0 min 0 W/m 6,4 km/h (2 Bft) 95,74 %
23.03.2019 20:02 10,4 C 8,9 C 8,9 C 91 % 1028,3 hPa 0,0 l/m 0 min 0 min 0 W/m 6,4 km/h (2 Bft) 97,87 %
23.03.2019 20:04 10,4 C 8,9 C 8,9 C 91 % 1028,3 hPa 0,0 l/m 0 min 0 min 0 W/m 9,7 km/h (2 Bft) 95,74 %
23.03.2019 20:06 10,3 C 8,9 C 8,9 C 91 % 1028,3 hPa 0,0 l/m 0 min 0 min 0 W/m 3,2 km/h (1 Bft) 95,74 %
23.03.2019 20:08 10,3 C 8,9 C 8,9 C 91 % 1028,3 hPa 0,0 l/m 0 min 0 min 0 W/m 6,4 km/h (2 Bft) 93,48 %
23.03.2019 20:10 10,3 C 8,9 C 8,9 C 91 % 1028,3 hPa 0,0 l/m 0 min 0 min 0 W/m 6,4 km/h (2 Bft) 97,87 %
23.03.2019 20:12 10,3 C 8,9 C 8,9 C 91 % 1028,3 hPa 0,0 l/m 0 min 0 min 0 W/m 9,7 km/h (2 Bft) 97,87 %
23.03.2019 20:14 10,3 C 8,9 C 8,3 C 91 % 1028,3 hPa 0,0 l/m 0 min 0 min 0 W/m 0,0 km/h (0 Bft) 95,74 %
23.03.2019 20:16 10,2 C 8,9 C 8,3 C 91 % 1028,3 hPa 0,0 l/m 0 min 0 min 0 W/m 3,2 km/h (1 Bft) 95,74 %
23.03.2019 20:18 10,2 C 8,9 C 8,3 C 92 % 1028,2 hPa 0,0 l/m 0 min 0 min 0 W/m 6,4 km/h (2 Bft) 97,87 %
23.03.2019 20:20 10,2 C 8,9 C 8,3 C 92 % 1028,3 hPa 0,0 l/m 0 min 0 min 0 W/m 16,1 km/h (3 Bft) 97,83 %
23.03.2019 20:22 10,2 C 8,9 C 8,3 C 92 % 1028,3 hPa 0,0 l/m 0 min 0 min 0 W/m 3,2 km/h (1 Bft) 97,87 %
23.03.2019 20:24 10,1 C 8,9 C 8,3 C 92 % 1028,3 hPa 0,0 l/m 0 min 0 min 0 W/m 3,2 km/h (1 Bft) 97,87 %
23.03.2019 20:26 10,1 C 8,9 C 8,3 C 92 % 1028,3 hPa 0,0 l/m 0 min 0 min 0 W/m 3,2 km/h (1 Bft) 95,74 %
23.03.2019 20:28 10,1 C 8,9 C 8,3 C 92 % 1028,4 hPa 0,0 l/m 0 min 0 min 0 W/m 6,4 km/h (2 Bft) 95,74 %
23.03.2019 20:30 10,0 C 8,9 C 8,3 C 92 % 1028,4 hPa 0,0 l/m 0 min 0 min 0 W/m 0,0 km/h (0 Bft) 97,87 %
23.03.2019 20:32 10,0 C 8,9 C 8,3 C 92 % 1028,3 hPa 0,0 l/m 0 min 0 min 0 W/m 3,2 km/h (1 Bft) 95,65 %
23.03.2019 20:34 10,0 C 8,9 C 8,3 C 92 % 1028,4 hPa 0,0 l/m 0 min 0 min 0 W/m 3,2 km/h (1 Bft) 97,87 %
23.03.2019 20:36 10,0 C 8,9 C 8,3 C 92 % 1028,4 hPa 0,0 l/m 0 min 0 min 0 W/m 6,4 km/h (2 Bft) 100,00 %
23.03.2019 20:38 9,9 C 8,9 C 8,3 C 92 % 1028,4 hPa 0,0 l/m 0 min 0 min 0 W/m 3,2 km/h (1 Bft) 100,00 %
23.03.2019 20:40 9,9 C 8,9 C 8,3 C 92 % 1028,4 hPa 0,0 l/m 0 min 0 min 0 W/m 0,0 km/h (0 Bft) 100,00 %
23.03.2019 20:42 9,9 C 8,9 C 8,3 C 92 % 1028,4 hPa 0,0 l/m 0 min 0 min 0 W/m 3,2 km/h (1 Bft) 100,00 %
23.03.2019 20:44 9,9 C 8,9 C 8,3 C 92 % 1028,5 hPa 0,0 l/m 0 min 0 min 0 W/m 6,4 km/h (2 Bft) 97,87 %
23.03.2019 20:46 9,9 C 8,9 C 8,3 C 92 % 1028,4 hPa 0,0 l/m 0 min 0 min 0 W/m 3,2 km/h (1 Bft) 100,00 %
23.03.2019 20:48 9,9 C 8,9 C 8,3 C 92 % 1028,4 hPa 0,0 l/m 0 min 0 min 0 W/m 3,2 km/h (1 Bft) 100,00 %
23.03.2019 20:50 9,8 C 8,9 C 8,3 C 92 % 1028,4 hPa 0,0 l/m 0 min 0 min 0 W/m 0,0 km/h (0 Bft) 100,00 %
23.03.2019 20:52 9,8 C 8,9 C 8,3 C 92 % 1028,4 hPa 0,0 l/m 0 min 0 min 0 W/m 0,0 km/h (0 Bft) 97,87 %
23.03.2019 20:54 9,8 C 8,9 C 8,3 C 92 % 1028,4 hPa 0,0 l/m 0 min 0 min 0 W/m 0,0 km/h (0 Bft) 97,83 %
23.03.2019 20:56 9,8 C 8,9 C 8,3 C 92 % 1028,4 hPa 0,0 l/m 0 min 0 min 0 W/m 0,0 km/h (0 Bft) 100,00 %
23.03.2019 20:58 9,8 C 8,9 C 8,3 C 92 % 1028,4 hPa 0,0 l/m 0 min 0 min 0 W/m 0,0 km/h (0 Bft) 97,87 %
23.03.2019 21:00 9,8 C 8,9 C 8,3 C 92 % 1028,5 hPa 0,0 l/m 0 min 0 min 0 W/m 0,0 km/h (0 Bft) 100,00 %
23.03.2019 21:02 9,8 C 8,9 C 8,3 C 92 % 1028,5 hPa 0,0 l/m 0 min 0 min 0 W/m 3,2 km/h (1 Bft) 100,00 %
23.03.2019 21:04 9,8 C 8,9 C 8,3 C 93 % 1028,5 hPa 0,0 l/m 0 min 0 min 0 W/m 3,2 km/h (1 Bft) 100,00 %
23.03.2019 21:06 9,8 C 8,9 C 8,3 C 93 % 1028,4 hPa 0,0 l/m 0 min 0 min 0 W/m 3,2 km/h (1 Bft) 100,00 %
23.03.2019 21:08 9,7 C 8,9 C 8,3 C 93 % 1028,4 hPa 0,0 l/m 0 min 0 min 0 W/m 3,2 km/h (1 Bft) 100,00 %
23.03.2019 21:10 9,7 C 8,9 C 8,3 C 93 % 1028,5 hPa 0,0 l/m 0 min 0 min 0 W/m 0,0 km/h (0 Bft) 100,00 %
23.03.2019 21:12 9,7 C 8,9 C 8,3 C 93 % 1028,5 hPa 0,0 l/m 0 min 0 min 0 W/m 3,2 km/h (1 Bft) 97,87 %
23.03.2019 21:14 9,7 C 8,9 C 8,3 C 93 % 1028,5 hPa 0,0 l/m 0 min 0 min 0 W/m 6,4 km/h (2 Bft) 97,87 %
23.03.2019 21:16 9,7 C 8,9 C 8,3 C 93 % 1028,5 hPa 0,0 l/m 0 min 0 min 0 W/m 9,7 km/h (2 Bft) 97,87 %
23.03.2019 21:18 9,7 C 8,9 C 8,3 C 93 % 1028,5 hPa 0,0 l/m 0 min 0 min 0 W/m 0,0 km/h (0 Bft) 100,00 %
23.03.2019 21:20 9,7 C 8,9 C 8,9 C 93 % 1028,5 hPa 0,0 l/m 0 min 0 min 0 W/m 3,2 km/h (1 Bft) 97,87 %
23.03.2019 21:22 9,7 C 8,9 C 8,9 C 93 % 1028,5 hPa 0,0 l/m 0 min 0 min 0 W/m 3,2 km/h (1 Bft) 95,74 %
23.03.2019 21:24 9,7 C 8,9 C 8,9 C 93 % 1028,5 hPa 0,0 l/m 0 min 0 min 0 W/m 3,2 km/h (1 Bft) 100,00 %
23.03.2019 21:26 9,7 C 8,9 C 8,9 C 93 % 1028,5 hPa 0,0 l/m 0 min 0 min 0 W/m 0,0 km/h (0 Bft) 97,87 %
23.03.2019 21:28 9,7 C 8,9 C 8,9 C 93 % 1028,4 hPa 0,0 l/m 0 min 0 min 0 W/m 3,2 km/h (1 Bft) 97,87 %
23.03.2019 21:30 9,7 C 8,9 C 8,9 C 93 % 1028,5 hPa 0,0 l/m 0 min 0 min 0 W/m 3,2 km/h (1 Bft) 97,83 %
23.03.2019 21:32 9,7 C 8,9 C 8,9 C 93 % 1028,4 hPa 0,0 l/m 0 min 0 min 0 W/m 0,0 km/h (0 Bft) 95,74 %
23.03.2019 21:34 9,7 C 8,9 C 8,9 C 93 % 1028,4 hPa 0,0 l/m 0 min 0 min 0 W/m 0,0 km/h (0 Bft) 95,74 %
23.03.2019 21:36 9,7 C 8,9 C 8,9 C 93 % 1028,5 hPa 0,0 l/m 0 min 0 min 0 W/m 3,2 km/h (1 Bft) 95,74 %
23.03.2019 21:38 9,7 C 8,9 C 8,9 C 93 % 1028,4 hPa 0,0 l/m 0 min 0 min 0 W/m 3,2 km/h (1 Bft) 97,87 %
23.03.2019 21:40 9,7 C 8,9 C 8,9 C 93 % 1028,4 hPa 0,0 l/m 0 min 0 min 0 W/m 3,2 km/h (1 Bft) 97,87 %
23.03.2019 21:42 9,7 C 8,9 C 8,9 C 93 % 1028,4 hPa 0,0 l/m 0 min 0 min 0 W/m 0,0 km/h (0 Bft) 97,83 %
23.03.2019 21:44 9,7 C 8,9 C 8,9 C 93 % 1028,4 hPa 0,0 l/m 0 min 0 min 0 W/m 3,2 km/h (1 Bft) 97,87 %
23.03.2019 21:46 9,7 C 8,9 C 8,9 C 93 % 1028,4 hPa 0,0 l/m 0 min 0 min 0 W/m 0,0 km/h (0 Bft) 97,87 %
23.03.2019 21:48 9,7 C 8,9 C 8,9 C 93 % 1028,4 hPa 0,0 l/m 0 min 0 min 0 W/m 0,0 km/h (0 Bft) 97,87 %
23.03.2019 21:50 9,7 C 8,9 C 8,3 C 93 % 1028,4 hPa 0,0 l/m 0 min 0 min 0 W/m 0,0 km/h (0 Bft) 97,87 %
23.03.2019 21:52 9,7 C 8,9 C 8,9 C 93 % 1028,3 hPa 0,0 l/m 0 min 0 min 0 W/m 0,0 km/h (0 Bft) 95,74 %
23.03.2019 21:54 9,7 C 8,9 C 8,3 C 93 % 1028,4 hPa 0,0 l/m 0 min 0 min 0 W/m 0,0 km/h (0 Bft) 95,65 %
23.03.2019 21:56 9,6 C 8,9 C 8,3 C 93 % 1028,3 hPa 0,0 l/m 0 min 0 min 0 W/m 3,2 km/h (1 Bft) 97,87 %
23.03.2019 21:58 9,6 C 8,9 C 8,3 C 93 % 1028,3 hPa 0,0 l/m 0 min 0 min 0 W/m 3,2 km/h (1 Bft) 97,87 %
23.03.2019 22:00 9,6 C 8,9 C 8,3 C 93 % 1028,3 hPa 0,0 l/m 0 min 0 min 0 W/m 3,2 km/h (1 Bft) 97,87 %
23.03.2019 22:02 9,6 C 8,9 C 8,3 C 93 % 1028,2 hPa 0,0 l/m 0 min 0 min 0 W/m 0,0 km/h (0 Bft) 97,87 %
23.03.2019 22:04 9,6 C 8,9 C 8,3 C 93 % 1028,2 hPa 0,0 l/m 0 min 0 min 0 W/m 3,2 km/h (1 Bft) 93,48 %
23.03.2019 22:06 9,6 C 8,9 C 8,3 C 93 % 1028,2 hPa 0,0 l/m 0 min 0 min 0 W/m 0,0 km/h (0 Bft) 93,62 %
23.03.2019 22:08 9,6 C 8,9 C 8,3 C 93 % 1028,2 hPa 0,0 l/m 0 min 0 min 0 W/m 0,0 km/h (0 Bft) 95,74 %
23.03.2019 22:10 9,6 C 8,9 C 8,3 C 93 % 1028,1 hPa 0,0 l/m 0 min 0 min 0 W/m 3,2 km/h (1 Bft) 95,74 %
23.03.2019 22:12 9,6 C 8,9 C 8,3 C 93 % 1028,1 hPa 0,0 l/m 0 min 0 min 0 W/m 6,4 km/h (2 Bft) 95,74 %
23.03.2019 22:14 9,6 C 8,9 C 8,3 C 93 % 1028,1 hPa 0,0 l/m 0 min 0 min 0 W/m 6,4 km/h (2 Bft) 95,74 %
23.03.2019 22:16 9,6 C 8,9 C 8,3 C 93 % 1028,1 hPa 0,0 l/m 0 min 0 min 0 W/m 6,4 km/h (2 Bft) 95,65 %
23.03.2019 22:18 9,6 C 8,9 C 8,3 C 93 % 1028,1 hPa 0,0 l/m 0 min 0 min 0 W/m 6,4 km/h (2 Bft) 97,87 %
23.03.2019 22:20 9,6 C 8,9 C 8,3 C 93 % 1028,1 hPa 0,0 l/m 0 min 0 min 0 W/m 3,2 km/h (1 Bft) 97,87 %
23.03.2019 22:22 9,5 C 8,9 C 8,3 C 93 % 1028,0 hPa 0,0 l/m 0 min 0 min 0 W/m 9,7 km/h (2 Bft) 95,74 %
23.03.2019 22:24 9,5 C 8,9 C 8,3 C 93 % 1028,0 hPa 0,0 l/m 0 min 0 min 0 W/m 3,2 km/h (1 Bft) 93,62 %
23.03.2019 22:26 9,5 C 8,9 C 8,3 C 93 % 1027,9 hPa 0,0 l/m 0 min 0 min 0 W/m 6,4 km/h (2 Bft) 97,87 %
23.03.2019 22:28 9,5 C 8,9 C 8,3 C 93 % 1027,9 hPa 0,0 l/m 0 min 0 min 0 W/m 3,2 km/h (1 Bft) 97,83 %
23.03.2019 22:30 9,5 C 8,9 C 8,3 C 93 % 1028,0 hPa 0,0 l/m 0 min 0 min 0 W/m 3,2 km/h (1 Bft) 97,87 %
23.03.2019 22:32 9,5 C 8,9 C 8,3 C 93 % 1028,0 hPa 0,0 l/m 0 min 0 min 0 W/m 3,2 km/h (1 Bft) 97,87 %
23.03.2019 22:34 9,4 C 8,9 C 8,3 C 93 % 1027,9 hPa 0,0 l/m 0 min 0 min 0 W/m 3,2 km/h (1 Bft) 97,87 %
23.03.2019 22:36 9,4 C 8,9 C 8,3 C 93 % 1027,9 hPa 0,0 l/m 0 min 0 min 0 W/m 6,4 km/h (2 Bft) 97,87 %
23.03.2019 22:38 9,4 C 8,9 C 8,3 C 93 % 1027,9 hPa 0,0 l/m 0 min 0 min 0 W/m 3,2 km/h (1 Bft) 97,87 %
23.03.2019 22:40 9,4 C 8,9 C 8,3 C 93 % 1027,9 hPa 0,0 l/m 0 min 0 min 0 W/m 6,4 km/h (2 Bft) 95,65 %
23.03.2019 22:42 9,4 C 8,9 C 8,3 C 93 % 1027,9 hPa 0,0 l/m 0 min 0 min 0 W/m 6,4 km/h (2 Bft) 95,74 %
23.03.2019 22:44 9,4 C 8,9 C 8,3 C 93 % 1027,9 hPa 0,0 l/m 0 min 0 min 0 W/m 6,4 km/h (2 Bft) 97,87 %
23.03.2019 22:46 9,4 C 8,9 C 8,3 C 93 % 1027,9 hPa 0,0 l/m 0 min 0 min 0 W/m 6,4 km/h (2 Bft) 95,74 %
23.03.2019 22:48 9,4 C 8,9 C 8,3 C 93 % 1027,8 hPa 0,0 l/m 0 min 0 min 0 W/m 3,2 km/h (1 Bft) 100,00 %
23.03.2019 22:50 9,4 C 8,9 C 8,3 C 93 % 1027,9 hPa 0,0 l/m 0 min 0 min 0 W/m 3,2 km/h (1 Bft) 100,00 %
23.03.2019 22:52 9,4 C 8,9 C 8,3 C 93 % 1027,9 hPa 0,0 l/m 0 min 0 min 0 W/m 3,2 km/h (1 Bft) 100,00 %
23.03.2019 22:54 9,4 C 8,9 C 8,3 C 93 % 1027,9 hPa 0,0 l/m 0 min 0 min 0 W/m 3,2 km/h (1 Bft) 100,00 %
23.03.2019 22:56 9,4 C 8,9 C 8,3 C 93 % 1027,8 hPa 0,0 l/m 0 min 0 min 0 W/m 6,4 km/h (2 Bft) 100,00 %
23.03.2019 22:58 9,4 C 8,9 C 8,3 C 93 % 1027,9 hPa 0,0 l/m 0 min 0 min 0 W/m 6,4 km/h (2 Bft) 100,00 %
23.03.2019 23:00 9,4 C 8,9 C 8,3 C 93 % 1027,9 hPa 0,0 l/m 0 min 0 min 0 W/m 6,4 km/h (2 Bft) 100,00 %
23.03.2019 23:02 9,4 C 8,9 C 8,3 C 93 % 1027,9 hPa 0,0 l/m 0 min 0 min 0 W/m 6,4 km/h (2 Bft) 100,00 %
23.03.2019 23:04 9,3 C 8,9 C 8,3 C 92 % 1027,9 hPa 0,0 l/m 0 min 0 min 0 W/m 6,4 km/h (2 Bft) 97,83 %
23.03.2019 23:06 9,3 C 8,9 C 8,3 C 92 % 1027,8 hPa 0,0 l/m 0 min 0 min 0 W/m 3,2 km/h (1 Bft) 100,00 %
23.03.2019 23:08 9,3 C 8,9 C 8,3 C 92 % 1027,8 hPa 0,0 l/m 0 min 0 min 0 W/m 3,2 km/h (1 Bft) 100,00 %
23.03.2019 23:10 9,3 C 8,9 C 8,3 C 92 % 1027,9 hPa 0,0 l/m 0 min 0 min 0 W/m 3,2 km/h (1 Bft) 100,00 %
23.03.2019 23:12 9,3 C 8,9 C 8,3 C 92 % 1027,9 hPa 0,0 l/m 0 min 0 min 0 W/m 3,2 km/h (1 Bft) 97,87 %
23.03.2019 23:14 9,3 C 8,3 C 8,3 C 92 % 1027,9 hPa 0,0 l/m 0 min 0 min 0 W/m 3,2 km/h (1 Bft) 100,00 %
23.03.2019 23:16 9,3 C 8,3 C 8,3 C 92 % 1027,8 hPa 0,0 l/m 0 min 0 min 0 W/m 3,2 km/h (1 Bft) 97,83 %
23.03.2019 23:18 9,3 C 8,3 C 8,3 C 92 % 1027,8 hPa 0,0 l/m 0 min 0 min 0 W/m 3,2 km/h (1 Bft) 97,87 %
23.03.2019 23:20 9,3 C 8,3 C 8,3 C 92 % 1027,8 hPa 0,0 l/m 0 min 0 min 0 W/m 6,4 km/h (2 Bft) 97,87 %
23.03.2019 23:22 9,3 C 8,3 C 8,3 C 92 % 1027,9 hPa 0,0 l/m 0 min 0 min 0 W/m 6,4 km/h (2 Bft) 95,74 %
23.03.2019 23:24 9,2 C 8,3 C 8,3 C 92 % 1027,8 hPa 0,0 l/m 0 min 0 min 0 W/m 6,4 km/h (2 Bft) 93,62 %
23.03.2019 23:26 9,2 C 8,3 C 8,3 C 92 % 1027,8 hPa 0,0 l/m 0 min 0 min 0 W/m 9,7 km/h (2 Bft) 97,83 %
23.03.2019 23:28 9,2 C 8,3 C 8,3 C 92 % 1027,8 hPa 0,0 l/m 0 min 0 min 0 W/m 6,4 km/h (2 Bft) 97,87 %
23.03.2019 23:30 9,2 C 8,3 C 8,3 C 92 % 1027,7 hPa 0,0 l/m 0 min 0 min 0 W/m 3,2 km/h (1 Bft) 97,87 %
23.03.2019 23:32 9,2 C 8,3 C 8,3 C 92 % 1027,7 hPa 0,0 l/m 0 min 0 min 0 W/m 6,4 km/h (2 Bft) 95,74 %
23.03.2019 23:34 9,2 C 8,3 C 8,3 C 92 % 1027,8 hPa 0,0 l/m 0 min 0 min 0 W/m 6,4 km/h (2 Bft) 97,87 %
23.03.2019 23:36 9,2 C 8,3 C 8,3 C 92 % 1027,8 hPa 0,0 l/m 0 min 0 min 0 W/m 12,9 km/h (3 Bft) 97,87 %
23.03.2019 23:38 9,2 C 8,3 C 8,3 C 92 % 1027,7 hPa 0,0 l/m 0 min 0 min 0 W/m 9,7 km/h (2 Bft) 97,83 %
23.03.2019 23:40 9,1 C 8,9 C 8,3 C 91 % 1027,7 hPa 0,0 l/m 0 min 0 min 0 W/m 6,4 km/h (2 Bft) 97,87 %
23.03.2019 23:42 9,1 C 8,9 C 8,3 C 91 % 1027,6 hPa 0,0 l/m 0 min 0 min 0 W/m 3,2 km/h (1 Bft) 97,87 %
23.03.2019 23:44 9,1 C 8,9 C 8,3 C 91 % 1027,7 hPa 0,0 l/m 0 min 0 min 0 W/m 3,2 km/h (1 Bft) 97,87 %
23.03.2019 23:46 9,1 C 8,9 C 8,3 C 91 % 1027,6 hPa 0,0 l/m 0 min 0 min 0 W/m 6,4 km/h (2 Bft) 97,87 %
23.03.2019 23:48 9,1 C 8,9 C 8,3 C 91 % 1027,6 hPa 0,0 l/m 0 min 0 min 0 W/m 9,7 km/h (2 Bft) 97,87 %
23.03.2019 23:50 9,1 C 8,9 C 8,3 C 91 % 1027,6 hPa 0,0 l/m 0 min 0 min 0 W/m 9,7 km/h (2 Bft) 97,83 %
23.03.2019 23:52 9,1 C 8,9 C 8,3 C 91 % 1027,6 hPa 0,0 l/m 0 min 0 min 0 W/m 9,7 km/h (2 Bft) 97,87 %
23.03.2019 23:54 9,1 C 8,9 C 8,3 C 91 % 1027,6 hPa 0,0 l/m 0 min 0 min 0 W/m 6,4 km/h (2 Bft) 97,87 %
23.03.2019 23:56 9,1 C 8,9 C 8,3 C 91 % 1027,5 hPa 0,0 l/m 0 min 0 min 0 W/m 6,4 km/h (2 Bft) 95,74 %
23.03.2019 23:58 9,1 C 8,9 C 8,3 C 91 % 1027,5 hPa 0,0 l/m 0 min 0 min 0 W/m 6,4 km/h (2 Bft) 97,87 %
_ Min-Zeit 03:20 02:46 01:36 12:38 00:00 - - - - 00:12 19:44
Minimum _ 6,6 C 5,6 C 4,4 C 77 % 1024,5 hPa - - - - 0,0 km/h (0 Bft) 91,30 %
_ Max-Zeit 12:28 11:56 11:56 03:56 20:44 00:00 12:08 00:00 11:56 02:02 00:00
Maximum _ 12,1 C 16,1 C 13,3 C 95 % 1028,5 hPa 0,0 l/m 4 min 0 min 446 W/m 25,7 km/h
W (4 Bft)
100,00 %
Durchschnitt _ 9,4 C 9,2 C 8,6 C 88 % 1027,3 hPa #0,0 l/m #40 min. #0 min. 121 W/m 5,8 km/h (2 Bft) 97,52 %
© 2019 W. Hausmann